EW4266 Weather Reports


time (UTC)temp
C
wind
direction
speed
KPH
gust
KPH
rain 1hr
cm
rain 24hr
cm
rain mn
cm
humidity
%
barometer
mb
20260901220424 22 144 1.6 4.8 0.00 0.05 0.05 80 1016.5
20260901220346 22 144 1.6 4.8 0.00 0.05 0.05 79 1016.5
20260901220248 22 144 1.6 4.8 0.00 0.05 0.05 79 1016.5
20260901220149 22 144 1.6 4.8 0.00 0.05 0.05 79 1016.5
20260901220018 22 173 1.6 4.8 0.00 0.05 0.05 79 1016.5
20260901215932 22 173 1.6 4.8 0.00 0.05 0.05 79 1016.5
20260901215742 22 185 0.0 4.8 0.00 0.05 0.05 77 1016.5
20260901215701 22 180 0.0 4.8 0.00 0.05 0.05 78 1016.5
20260901215531 22 180 0.0 4.8 0.00 0.05 0.05 77 1016.6
20260901215430 22 180 0.0 4.8 0.00 0.05 0.05 77 1016.4
20260901215257 22 180 1.6 4.8 0.00 0.05 0.05 77 1016.4
20260901215219 22 180 0.0 4.8 0.00 0.05 0.05 77 1016.4
20260901215049 22 180 1.6 4.8 0.00 0.05 0.05 77 1016.5
20260901214950 22 180 1.6 4.8 0.00 0.05 0.05 77 1016.5
20260901214731 22 151 0.0 3.2 0.00 0.05 0.05 78 1016.4
20260901214652 22 151 0.0 3.2 0.00 0.05 0.05 78 1016.4
20260901214536 22 151 0.0 3.2 0.00 0.05 0.05 77 1016.5
20260901214434 22 151 0.0 3.2 0.00 0.05 0.05 77 1016.4
20260901214335 22 151 0.0 3.2 0.00 0.05 0.05 77 1016.5
20260901214251 22 151 0.0 3.2 0.00 0.05 0.05 77 1016.5
20260901214129 22 151 0.0 3.2 0.00 0.05 0.05 77 1016.4
20260901214031 22 151 0.0 3.2 0.00 0.05 0.05 77 1016.4
20260901213833 22 151 0.0 1.6 0.00 0.05 0.05 76 1016.5
20260901213755 22 151 0.0 3.2 0.00 0.05 0.05 76 1016.5
20260901213640 22 151 0.0 4.8 0.00 0.05 0.05 76 1016.4
20260901213603 22 151 0.0 6.4 0.00 0.05 0.05 76 1016.4
20260901213405 22 151 0.0 6.4 0.00 0.05 0.05 76 1016.4
20260901213330 22 151 0.0 6.4 0.00 0.05 0.05 76 1016.4
20260901213159 22 151 0.0 6.4 0.00 0.05 0.05 76 1016.5
20260901213121 22 151 0.0 6.4 0.00 0.05 0.05 76 1016.5
20260901212925 22 151 3.2 6.4 0.00 0.05 0.05 76 1016.6
20260901212846 22 151 3.2 6.4 0.00 0.05 0.05 76 1016.5
20260901212748 22 209 3.2 6.4 0.00 0.05 0.05 76 1016.5
20260901212647 22 169 3.2 4.8 0.00 0.05 0.05 76 1016.5
20260901212608 22 171 3.2 4.8 0.00 0.05 0.05 75 1016.5
20260901212513 22 193 3.2 4.8 0.00 0.05 0.05 75 1016.6
20260901212434 22 173 3.2 6.4 0.00 0.05 0.05 75 1016.6
20260901212252 22 207 3.2 6.4 0.00 0.05 0.05 76 1016.5
20260901212147 22 173 3.2 6.4 0.00 0.05 0.05 74 1016.5
20260901212020 22 206 1.6 8.0 0.00 0.05 0.05 75 1016.5
20260901211942 22 181 1.6 8.0 0.00 0.05 0.05 74 1016.5
20260901211811 22 190 3.2 11.3 0.00 0.05 0.05 74 1016.6
20260901211727 22 159 3.2 11.3 0.00 0.05 0.05 73 1016.6
20260901211606 22 180 1.6 11.3 0.00 0.05 0.05 72 1016.6
20260901211507 22 155 3.2 11.3 0.00 0.05 0.05 72 1016.6
20260901211330 22 155 4.8 12.9 0.00 0.05 0.05 71 1016.5
20260901211251 22 172 4.8 12.9 0.00 0.05 0.05 71 1016.5
20260901211133 22 171 4.8 12.9 0.00 0.05 0.05 71 1016.5
20260901211055 22 154 6.4 12.9 0.00 0.05 0.05 71 1016.5
20260901211015 22 150 4.8 12.9 0.00 0.05 0.05 72 1016.5
20260901210918 22 144 4.8 12.9 0.00 0.05 0.05 71 1016.5
20260901210845 22 170 4.8 12.9 0.00 0.05 0.05 71 1016.5
20260901210713 22 157 4.8 12.9 0.00 0.05 0.05 71 1016.6
20260901210615 22 146 4.8 12.9 0.00 0.05 0.05 71 1016.6
20260901210438 23 150 4.8 6.4 0.00 0.05 0.05 74 1016.5
20260901210340 23 145 3.2 6.4 0.00 0.05 0.05 73 1016.5
20260901210224 23 130 3.2 6.4 0.00 0.05 0.05 72 1016.5
20260901210147 23 142 1.6 8.0 0.00 0.05 0.05 73 1016.4
20260901205928 23 157 3.2 8.0 0.00 0.05 0.05 77 1016.5
20260901205850 23 157 1.6 8.0 0.00 0.05 0.05 75 1016.5
20260901205754 23 136 0.0 8.0 0.00 0.05 0.05 78 1016.4
20260901205719 23 175 0.0 8.0 0.00 0.05 0.05 77 1016.5
20260901205523 23 175 0.0 8.0 0.00 0.05 0.05 77 1016.4
20260901205425 23 175 0.0 8.0 0.00 0.05 0.05 77 1016.4
20260901205328 23 175 1.6 8.0 0.00 0.05 0.05 77 1016.4
20260901205230 23 175 3.2 8.0 0.00 0.05 0.05 72 1016.4
20260901205152 23 175 3.2 8.0 0.00 0.05 0.05 72 1016.4
20260901205056 23 209 1.6 8.0 0.00 0.05 0.05 74 1016.4
20260901205017 23 220 1.6 6.4 0.00 0.05 0.05 78 1016.4
20260901204847 23 147 1.6 6.4 0.00 0.05 0.05 78 1016.3
20260901204801 23 208 1.6 6.4 0.00 0.05 0.05 77 1016.3
20260901204613 23 206 1.6 4.8 0.00 0.05 0.05 78 1016.3
20260901204535 23 138 0.0 3.2 0.00 0.05 0.05 77 1016.3
20260901204337 23 138 0.0 3.2 0.00 0.05 0.05 77 1016.2
20260901204258 23 138 0.0 3.2 0.00 0.05 0.05 77 1016.2
20260901204141 23 138 0.0 4.8 0.00 0.05 0.05 77 1016.2
20260901204050 23 138 0.0 4.8 0.00 0.05 0.05 78 1016.2
20260901203953 23 138 0.0 4.8 0.00 0.05 0.05 78 1016.2
20260901203833 23 138 1.6 4.8 0.00 0.05 0.05 77 1016.2
20260901203618 23 138 1.6 4.8 0.00 0.05 0.05 76 1016.2
20260901203552 23 138 1.6 4.8 0.00 0.05 0.05 76 1016.2
20260901203436 23 138 3.2 4.8 0.00 0.05 0.05 76 1016.2
20260901203357 23 138 3.2 4.8 0.00 0.05 0.05 76 1016.2
20260901203317 23 138 3.2 4.8 0.00 0.05 0.05 75 1016.1
20260901203219 23 138 0.0 4.8 0.00 0.05 0.05 78 1016.1
20260901203120 23 163 0.0 4.8 0.00 0.05 0.05 78 1016.1
20260901202951 23 163 0.0 4.8 0.00 0.05 0.05 78 1016.2
20260901202845 23 163 0.0 4.8 0.00 0.05 0.05 77 1016.1
20260901202634 23 163 1.6 4.8 0.00 0.05 0.05 76 1016.1
20260901202550 23 163 3.2 4.8 0.00 0.05 0.05 76 1016.1
20260901202419 23 163 1.6 4.8 0.00 0.05 0.05 75 1016.1
20260901202346 23 175 1.6 4.8 0.00 0.05 0.05 75 1016.1
20260901202128 23 175 1.6 4.8 0.00 0.05 0.05 73 1016.2
20260901202050 23 148 1.6 4.8 0.00 0.05 0.05 73 1016.2
20260901201935 23 147 1.6 4.8 0.00 0.05 0.05 75 1016.1
20260901201856 23 148 1.6 4.8 0.00 0.05 0.05 75 1016.1
20260901201818 23 180 1.6 4.8 0.00 0.05 0.05 73 1016.2
20260901201722 23 180 1.6 4.8 0.00 0.05 0.05 72 1016.2
20260901201643 23 180 0.0 4.8 0.00 0.05 0.05 72 1016.1
20260901201513 23 161 0.0 3.2 0.00 0.05 0.05 74 1016.1
20260901201429 23 161 0.0 3.2 0.00 0.05 0.05 75 1016.1
20260901201248 23 161 0.0 3.2 0.00 0.05 0.05 75 1016.1
20260901201153 23 161 0.0 3.2 0.00 0.05 0.05 75 1016.1
20260901200936 23 161 0.0 4.8 0.00 0.05 0.05 75 1016.1
20260901200856 23 161 1.6 4.8 0.00 0.05 0.05 74 1016.0
20260901200740 23 161 1.6 4.8 0.00 0.05 0.05 74 1016.0
20260901200701 23 161 1.6 4.8 0.00 0.05 0.05 74 1016.0
20260901200424 23 161 0.0 8.0 0.00 0.05 0.05 74 1016.0
20260901200346 23 161 1.6 8.0 0.00 0.05 0.05 73 1016.0
20260901200214 23 161 1.6 8.0 0.00 0.05 0.05 72 1016.0
20260901200137 23 153 1.6 8.0 0.00 0.05 0.05 73 1016.0
20260901200059 23 153 1.6 8.0 0.00 0.05 0.05 72 1016.0
20260901200021 23 153 3.2 8.0 0.00 0.05 0.05 72 1016.0
20260901195937 23 186 3.2 8.0 0.00 0.05 0.05 71 1016.0
20260901195755 23 196 4.8 8.0 0.00 0.05 0.05 72 1016.0
20260901195717 23 201 4.8 8.0 0.00 0.05 0.05 70 1015.9
20260901195540 23 171 3.2 6.4 0.00 0.05 0.05 71 1016.0
20260901195440 24 159 3.2 6.4 0.00 0.05 0.05 70 1016.0
20260901195324 24 153 1.6 6.4 0.00 0.05 0.05 67 1016.0
20260901195245 24 153 1.6 6.4 0.00 0.05 0.05 67 1016.0
20260901195119 24 153 1.6 6.4 0.00 0.05 0.05 68 1016.0
20260901195034 24 153 1.6 6.4 0.00 0.05 0.05 68 1016.0
20260901194905 24 153 3.2 6.4 0.00 0.05 0.05 69 1016.0
20260901194827 24 154 1.6 6.4 0.00 0.05 0.05 69 1016.0
20260901194650 24 215 1.6 3.2 0.00 0.05 0.05 68 1016.0
20260901194612 24 215 1.6 3.2 0.00 0.05 0.05 67 1016.0
20260901194453 24 198 1.6 3.2 0.00 0.05 0.05 69 1016.0
20260901194408 24 198 1.6 4.8 0.00 0.05 0.05 69 1016.0
20260901194226 24 198 1.6 6.4 0.00 0.05 0.05 69 1016.0
20260901194127 24 198 1.6 6.4 0.00 0.05 0.05 68 1016.0
20260901193957 24 198 0.0 6.4 0.00 0.05 0.05 68 1016.0
20260901193901 24 198 0.0 6.4 0.00 0.05 0.05 68 1016.0
20260901193730 24 198 1.6 8.0 0.00 0.05 0.05 68 1016.1
20260901193635 24 198 1.6 8.0 0.00 0.05 0.05 68 1016.1
20260901193439 24 198 3.2 8.0 0.00 0.05 0.05 69 1016.1
20260901193359 24 183 3.2 8.0 0.00 0.05 0.05 69 1016.1
20260901193301 24 209 3.2 8.0 0.00 0.05 0.05 67 1016.2
20260901193223 24 209 3.2 8.0 0.00 0.05 0.05 67 1016.2
20260901193054 24 153 4.8 8.0 0.00 0.05 0.05 68 1016.2
20260901192947 24 175 4.8 8.0 0.00 0.05 0.05 68 1016.1
20260901192816 24 176 1.6 8.0 0.00 0.05 0.05 68 1016.1
20260901192737 24 178 3.2 8.0 0.00 0.05 0.05 68 1016.1
20260901192607 25 179 3.2 8.0 0.00 0.05 0.05 69 1016.1
20260901192522 25 223 1.6 8.0 0.00 0.05 0.05 68 1016.1
20260901192337 25 244 1.6 6.4 0.00 0.05 0.05 67 1016.1
20260901192251 25 238 0.0 6.4 0.00 0.05 0.05 70 1016.1
20260901192100 25 211 1.6 6.4 0.00 0.05 0.05 68 1016.1
20260901192020 25 211 3.2 6.4 0.00 0.05 0.05 68 1016.1
20260901191934 25 211 3.2 6.4 0.00 0.05 0.05 68 1016.1
20260901191833 24 238 1.6 4.8 0.00 0.05 0.05 69 1016.1
20260901191733 24 238 1.6 4.8 0.00 0.05 0.05 68 1016.1
20260901191536 24 329 3.2 6.4 0.00 0.05 0.05 70 1016.1
20260901191431 24 331 1.6 6.4 0.00 0.05 0.05 69 1016.1
20260901191332 24 355 1.6 6.4 0.00 0.05 0.05 69 1016.1
20260901191222 24 355 0.0 6.4 0.00 0.05 0.05 67 1016.1
20260901191155 24 355 0.0 6.4 0.00 0.05 0.05 67 1016.1
20260901191108 24 355 0.0 6.4 0.00 0.05 0.05 66 1016.1
20260901191030 24 355 0.0 6.4 0.00 0.05 0.05 67 1016.1
20260901190834 24 355 3.2 6.4 0.00 0.05 0.05 66 1016.1
20260901190735 24 13 3.2 4.8 0.00 0.05 0.05 68 1016.1
20260901190640 24 360 1.6 4.8 0.00 0.05 0.05 69 1016.1
20260901190601 24 233 0.0 4.8 0.00 0.05 0.05 67 1016.1
20260901190409 24 213 1.6 4.8 0.00 0.05 0.05 67 1016.2
20260901190329 24 115 1.6 6.4 0.00 0.05 0.05 68 1016.2
20260901190157 24 107 3.2 6.4 0.00 0.05 0.05 68 1016.1
20260901190119 24 115 3.2 6.4 0.00 0.05 0.05 70 1016.1
20260901190039 24 135 3.2 6.4 0.00 0.05 0.05 68 1016.1
20260901185920 24 126 1.6 6.4 0.00 0.05 0.05 70 1016.1
20260901185821 24 84 1.6 6.4 0.00 0.05 0.05 67 1016.2
20260901185652 24 101 1.6 8.0 0.00 0.05 0.05 69 1016.2
20260901185616 24 153 3.2 8.0 0.00 0.05 0.05 71 1016.2
20260901185426 24 166 4.8 8.0 0.00 0.05 0.05 68 1016.2
20260901185341 24 155 6.4 8.0 0.00 0.05 0.05 69 1016.2
20260901185129 24 171 4.8 8.0 0.00 0.05 0.05 67 1016.2
20260901185048 24 184 4.8 8.0 0.00 0.05 0.05 68 1016.2
20260901184918 24 206 4.8 8.0 0.00 0.05 0.05 69 1016.2
20260901184840 24 193 6.4 8.0 0.00 0.05 0.05 69 1016.2
20260901184623 24 172 4.8 9.7 0.00 0.05 0.05 67 1016.2
20260901184545 24 197 3.2 8.0 0.00 0.05 0.05 69 1016.2
20260901184448 24 149 0.0 6.4 0.00 0.05 0.05 71 1016.2
20260901184347 24 109 1.6 6.4 0.00 0.05 0.05 71 1016.2
20260901184308 24 109 1.6 6.4 0.00 0.05 0.05 71 1016.2
20260901184209 24 109 1.6 6.4 0.00 0.05 0.05 71 1016.2
20260901184131 24 113 3.2 6.4 0.00 0.05 0.05 69 1016.2
20260901184000 24 157 3.2 6.4 0.00 0.05 0.05 70 1016.2
20260901183920 24 146 3.2 8.0 0.00 0.05 0.05 70 1016.2
20260901183800 24 40 0.0 8.0 0.00 0.05 0.05 70 1016.2
20260901183722 24 69 0.0 8.0 0.00 0.05 0.05 69 1016.2
20260901183525 23 69 1.6 8.0 0.00 0.05 0.05 70 1016.2
20260901183446 23 69 1.6 8.0 0.00 0.05 0.05 70 1016.2
20260901183330 23 29 3.2 8.0 0.00 0.05 0.05 69 1016.2
20260901183251 23 29 4.8 8.0 0.00 0.05 0.05 69 1016.3
20260901183211 23 17 4.8 8.0 0.00 0.05 0.05 69 1016.2
20260901183115 23 15 4.8 8.0 0.00 0.05 0.05 68 1016.3
20260901183037 23 342 1.6 6.4 0.00 0.05 0.05 68 1016.3
20260901182906 23 36 1.6 6.4 0.00 0.05 0.05 70 1016.2
20260901182825 23 36 1.6 6.4 0.00 0.05 0.05 68 1016.2
20260901182635 23 14 3.2 6.4 0.00 0.05 0.05 71 1016.3
20260901182550 23 360 3.2 6.4 0.00 0.05 0.05 70 1016.3
20260901182338 23 58 1.6 4.8 0.00 0.05 0.05 70 1016.3
20260901182241 23 140 0.0 4.8 0.00 0.05 0.05 71 1016.2
20260901182112 23 140 1.6 9.7 0.00 0.05 0.05 69 1016.3
20260901182012 23 140 1.6 9.7 0.00 0.05 0.05 69 1016.3
20260901181934 23 101 1.6 9.7 0.00 0.05 0.05 69 1016.3
20260901181815 23 101 1.6 9.7 0.00 0.05 0.05 68 1016.4
20260901181737 23 101 1.6 9.7 0.00 0.05 0.05 69 1016.4
20260901181606 23 111 1.6 9.7 0.00 0.05 0.05 72 1016.4
20260901181527 23 111 3.2 9.7 0.00 0.05 0.05 72 1016.4
20260901181336 23 113 3.2 9.7 0.00 0.05 0.05 70 1016.4
20260901181250 23 105 3.2 8.0 0.00 0.05 0.05 70 1016.4
20260901181120 23 57 4.8 8.0 0.00 0.05 0.05 68 1016.4
20260901181042 23 74 4.8 8.0 0.00 0.05 0.05 69 1016.4
20260901180907 23 85 4.8 6.4 0.00 0.05 0.05 70 1016.4
20260901180828 23 57 4.8 6.4 0.00 0.05 0.05 71 1016.4
20260901180639 23 59 3.2 6.4 0.00 0.05 0.05 71 1016.4
20260901180532 23 96 1.6 6.4 0.00 0.05 0.05 69 1016.5
20260901180453 23 96 1.6 6.4 0.00 0.05 0.05 70 1016.4
20260901180359 23 96 3.2 6.4 0.00 0.05 0.05 69 1016.5
20260901180321 23 96 3.2 6.4 0.00 0.05 0.05 69 1016.5
20260901180125 23 99 3.2 6.4 0.00 0.05 0.05 71 1016.6
20260901180026 23 96 3.2 6.4 0.00 0.05 0.05 69 1016.6
20260901175930 23 107 3.2 4.8 0.00 0.05 0.05 68 1016.6
20260901175852 23 97 3.2 4.8 0.00 0.05 0.05 70 1016.6
20260901175721 23 101 1.6 4.8 0.00 0.05 0.05 71 1016.6
20260901175615 23 94 0.0 3.2 0.00 0.05 0.05 69 1016.6
20260901175444 23 65 0.0 0.0 0.00 0.05 0.05 68 1016.6
20260901175404 23 65 0.0 3.2 0.00 0.05 0.05 70 1016.6
20260901175305 23 65 0.0 3.2 0.00 0.05 0.05 69 1016.6
20260901175210 23 65 0.0 3.2 0.00 0.05 0.05 70 1016.6
20260901175132 23 65 0.0 6.4 0.00 0.05 0.05 70 1016.6
20260901174935 23 65 0.0 6.4 0.00 0.05 0.05 70 1016.6
20260901174836 23 65 0.0 6.4 0.00 0.05 0.05 70 1016.6
20260901174738 23 53 0.0 6.4 0.00 0.05 0.05 69 1016.6
20260901174628 23 53 0.0 6.4 0.00 0.05 0.05 68 1016.6
20260901174532 23 53 1.6 6.4 0.00 0.05 0.05 68 1016.6
20260901174452 23 53 3.2 6.4 0.00 0.05 0.05 69 1016.6
20260901174413 23 53 3.2 6.4 0.00 0.05 0.05 69 1016.6
20260901174315 23 53 3.2 6.4 0.00 0.05 0.05 68 1016.6
20260901174241 23 56 3.2 6.4 0.00 0.05 0.05 69 1016.6
20260901174110 23 360 1.6 6.4 0.00 0.05 0.05 70 1016.6
20260901174024 23 348 3.2 6.4 0.00 0.05 0.05 69 1016.6
20260901173834 23 338 3.2 6.4 0.00 0.05 0.05 71 1016.6
20260901173745 23 350 3.2 6.4 0.00 0.05 0.05 70 1016.6
20260901173629 23 355 3.2 8.0 0.00 0.05 0.05 71 1016.6
20260901173549 23 355 1.6 8.0 0.00 0.05 0.05 71 1016.6
20260901173510 23 332 1.6 8.0 0.00 0.05 0.05 69 1016.6
20260901173414 23 332 3.2 8.0 0.00 0.05 0.05 69 1016.6
20260901173337 23 332 3.2 8.0 0.00 0.05 0.05 69 1016.6
20260901173206 23 324 3.2 8.0 0.00 0.05 0.05 70 1016.6
20260901173119 23 339 3.2 8.0 0.00 0.05 0.05 71 1016.6
20260901172933 23 12 4.8 8.0 0.00 0.05 0.05 68 1016.6
20260901172849 23 344 6.4 8.0 0.00 0.05 0.05 70 1016.6
20260901172636 23 339 4.8 6.4 0.00 0.05 0.05 70 1016.6
20260901172551 23 346 3.2 6.4 0.00 0.05 0.05 70 1016.6
20260901172421 23 328 0.0 3.2 0.00 0.05 0.05 70 1016.6
20260901172343 23 165 1.6 3.2 0.00 0.05 0.05 70 1016.6
20260901172125 23 165 1.6 3.2 0.00 0.05 0.05 70 1016.6
20260901172045 23 130 1.6 3.2 0.00 0.05 0.05 70 1016.5
20260901171930 23 130 1.6 3.2 0.00 0.05 0.05 69 1016.5
20260901171855 23 130 1.6 3.2 0.00 0.05 0.05 71 1016.5
20260901171725 23 128 1.6 3.2 0.00 0.05 0.05 71 1016.6
20260901171619 23 128 1.6 3.2 0.00 0.05 0.05 71 1016.6
20260901171429 23 128 1.6 3.2 0.00 0.05 0.05 72 1016.5
20260901171345 23 128 1.6 3.2 0.00 0.05 0.05 71 1016.6
20260901171133 22 128 0.0 3.2 0.00 0.05 0.05 72 1016.5
20260901171027 22 128 0.0 3.2 0.00 0.05 0.05 72 1016.6
20260901170959 22 128 0.0 4.8 0.00 0.05 0.05 72 1016.5
20260901170827 22 128 0.0 4.8 0.00 0.05 0.05 75 1016.5
20260901170741 22 128 0.0 6.4 0.00 0.05 0.05 74 1016.5
20260901170549 22 128 1.6 6.4 0.00 0.05 0.05 75 1016.6
20260901170511 22 128 1.6 6.4 0.00 0.05 0.05 74 1016.6
20260901170412 22 161 1.6 6.4 0.00 0.05 0.05 71 1016.6
20260901170313 22 148 1.6 6.4 0.00 0.05 0.05 72 1016.6
20260901170214 22 178 3.2 6.4 0.00 0.05 0.05 71 1016.6
20260901170115 22 188 3.2 6.4 0.00 0.05 0.05 72 1016.7
20260901170020 22 190 4.8 6.4 0.00 0.05 0.05 72 1016.7
20260901165941 22 188 4.8 6.4 0.00 0.05 0.05 71 1016.7
20260901165811 22 194 4.8 6.4 0.00 0.05 0.05 72 1016.7
20260901165725 22 192 4.8 6.4 0.00 0.05 0.05 74 1016.7
20260901165554 22 165 3.2 6.4 0.00 0.05 0.05 73 1016.7
20260901165520 22 173 4.8 6.4 0.00 0.05 0.05 73 1016.7
20260901165323 22 174 3.2 8.0 0.00 0.05 0.05 75 1016.7
20260901165243 22 194 3.2 8.0 0.00 0.05 0.05 75 1016.7
20260901165127 22 149 1.6 8.0 0.00 0.05 0.05 73 1016.7
20260901165048 22 153 1.6 8.0 0.00 0.05 0.05 73 1016.7
20260901165009 22 159 3.2 8.0 0.00 0.05 0.05 72 1016.7
20260901164851 22 159 4.8 8.0 0.00 0.05 0.05 73 1016.7
20260901164811 22 167 4.8 8.0 0.00 0.05 0.05 72 1016.7
20260901164732 22 148 6.4 8.0 0.00 0.05 0.05 72 1016.7
20260901164613 22 159 4.8 9.7 0.00 0.05 0.05 73 1016.7
20260901164536 22 159 3.2 8.0 0.00 0.05 0.05 73 1016.7
20260901164347 22 248 3.2 4.8 0.00 0.05 0.05 73 1016.7
20260901164242 22 239 3.2 4.8 0.00 0.05 0.05 74 1016.7
20260901164110 22 207 1.6 4.8 0.00 0.05 0.05 74 1016.8
20260901164033 22 223 1.6 4.8 0.00 0.05 0.05 74 1016.8
20260901163854 22 194 0.0 4.8 0.00 0.05 0.05 73 1016.7
20260901163734 22 200 0.0 4.8 0.00 0.05 0.05 72 1016.7
20260901163656 22 200 1.6 6.4 0.00 0.05 0.05 73 1016.8
20260901163610 22 200 1.6 8.0 0.00 0.05 0.05 72 1016.8
20260901163418 22 209 1.6 8.0 0.00 0.05 0.05 72 1016.8
20260901163318 22 209 1.6 8.0 0.00 0.05 0.05 73 1016.8
20260901163201 22 209 1.6 8.0 0.00 0.05 0.05 73 1016.8
20260901163124 22 201 1.6 8.0 0.00 0.05 0.05 74 1016.8
20260901162957 22 196 3.2 8.0 0.00 0.05 0.05 73 1016.9
20260901162851 22 207 4.8 8.0 0.00 0.05 0.05 74 1016.9
20260901162719 22 205 4.8 8.0 0.00 0.05 0.05 72 1016.9
20260901162642 22 230 4.8 6.4 0.00 0.05 0.05 73 1016.9
20260901162512 22 221 3.2 6.4 0.00 0.05 0.05 74 1016.9
20260901162426 22 248 3.2 6.4 0.00 0.05 0.05 73 1016.9
20260901162257 22 232 4.8 6.4 0.00 0.05 0.05 73 1016.9
20260901162218 22 193 4.8 6.4 0.00 0.05 0.05 73 1016.9
20260901162042 22 167 3.2 8.0 0.00 0.05 0.05 72 1016.8
20260901161943 22 188 3.2 8.0 0.00 0.05 0.05 72 1016.9
20260901161846 22 172 1.6 8.0 0.00 0.05 0.05 73 1016.8
20260901161808 22 234 1.6 8.0 0.00 0.05 0.05 72 1016.9
20260901161620 22 234 1.6 8.0 0.00 0.05 0.05 72 1016.8
20260901161536 22 242 1.6 8.0 0.00 0.05 0.05 71 1016.8
20260901161404 22 200 3.2 8.0 0.00 0.05 0.05 72 1016.9
20260901161326 22 206 4.8 8.0 0.00 0.05 0.05 71 1016.9
20260901161129 22 237 1.6 6.4 0.00 0.05 0.05 72 1016.9
20260901161049 22 237 1.6 6.4 0.00 0.05 0.05 72 1016.9
20260901160944 22 237 1.6 6.4 0.00 0.05 0.05 73 1016.9
20260901160854 22 236 1.6 6.4 0.00 0.05 0.05 71 1016.9
20260901160816 22 236 1.6 6.4 0.00 0.05 0.05 71 1016.9
20260901160721 22 237 1.6 6.4 0.00 0.05 0.05 71 1016.9
20260901160642 22 246 1.6 6.4 0.00 0.05 0.05 71 1016.9
20260901160516 22 267 1.6 6.4 0.00 0.05 0.05 70 1016.9
20260901160430 22 267 3.2 6.4 0.00 0.05 0.05 69 1016.9
20260901160259 22 273 1.6 6.4 0.00 0.05 0.05 70 1016.8
20260901160220 22 273 1.6 6.4 0.00 0.05 0.05 70 1016.8
20260901160042 22 307 3.2 6.4 0.00 0.05 0.05 71 1016.8
20260901155943 22 163 3.2 6.4 0.00 0.05 0.05 70 1016.8
20260901155827 22 206 3.2 6.4 0.00 0.05 0.05 70 1016.9
20260901155747 22 225 3.2 6.4 0.00 0.05 0.05 70 1016.8
20260901155709 22 223 1.6 6.4 0.00 0.05 0.05 70 1016.9
20260901155552 22 223 1.6 6.4 0.00 0.05 0.05 69 1016.8
20260901155515 22 223 3.2 6.4 0.00 0.05 0.05 69 1016.8
20260901155349 22 252 3.2 6.4 0.00 0.05 0.05 70 1016.8
20260901155242 22 242 1.6 6.4 0.00 0.05 0.05 70 1016.8
20260901155112 22 92 0.0 4.8 0.00 0.05 0.05 74 1016.7
20260901155034 22 92 1.6 4.8 0.00 0.05 0.05 71 1016.7
20260901154836 22 61 1.6 6.4 0.00 0.05 0.05 70 1016.8
20260901154757 22 55 0.0 6.4 0.00 0.05 0.05 70 1016.8
20260901154638 22 355 1.6 6.4 0.00 0.05 0.05 71 1016.8
20260901154601 22 355 1.6 6.4 0.00 0.05 0.05 70 1016.7
20260901154340 22 355 3.2 6.4 0.00 0.05 0.05 71 1016.8
20260901154244 22 355 3.2 6.4 0.00 0.05 0.05 73 1016.8
20260901154128 22 336 4.8 6.4 0.00 0.05 0.05 73 1016.8
20260901154049 22 338 4.8 6.4 0.00 0.05 0.05 73 1016.9
20260901153954 22 355 1.6 4.8 0.00 0.05 0.05 72 1016.9
20260901153904 22 90 1.6 4.8 0.00 0.05 0.05 71 1016.9
20260901153712 22 106 1.6 4.8 0.00 0.05 0.05 72 1016.9
20260901153628 22 106 1.6 4.8 0.00 0.05 0.05 72 1016.9
20260901153437 22 106 1.6 4.8 0.00 0.05 0.05 70 1016.9
20260901153331 22 106 3.2 4.8 0.00 0.05 0.05 70 1016.9
20260901153251 22 106 3.2 4.8 0.00 0.05 0.05 70 1016.9
20260901153137 22 134 1.6 4.8 0.00 0.05 0.05 72 1016.9
20260901153058 22 144 3.2 4.8 0.00 0.05 0.05 71 1017.0
20260901153001 22 150 3.2 4.8 0.00 0.05 0.05 72 1016.9
20260901152922 21 155 3.2 6.4 0.00 0.05 0.05 73 1016.9
20260901152724 21 205 0.0 0.0 0.00 0.05 0.05 71 1016.8
20260901152625 21 205 0.0 0.0 0.00 0.05 0.05 71 1016.8
20260901152528 21 205 0.0 0.0 0.00 0.05 0.05 71 1016.8
20260901152429 21 205 0.0 0.0 0.00 0.05 0.05 70 1016.8
20260901152351 21 205 0.0 0.0 0.00 0.05 0.05 70 1016.9
20260901152258 21 205 0.0 0.0 0.00 0.05 0.05 71 1016.8
20260901152140 21 205 0.0 0.0 0.00 0.05 0.05 70 1016.9
20260901152042 21 202 0.0 0.0 0.00 0.05 0.05 73 1016.9
20260901151944 21 202 0.0 0.0 0.00 0.05 0.05 74 1016.9
20260901151825 21 350 0.0 0.0 0.00 0.05 0.05 74 1017.0
20260901151746 21 350 0.0 0.0 0.00 0.05 0.05 74 1017.0
20260901151616 21 55 0.0 0.0 0.00 0.05 0.05 75 1017.1
20260901151530 21 292 0.0 0.0 0.00 0.05 0.05 75 1017.1
20260901151340 21 255 0.0 0.0 0.00 0.05 0.05 74 1017.0
20260901151238 21 190 0.0 6.4 0.00 0.05 0.05 75 1017.0
20260901151123 21 188 0.0 6.4 0.00 0.05 0.05 76 1016.9
20260901151025 21 165 0.0 6.4 0.00 0.05 0.05 75 1016.8
20260901150947 21 165 0.0 8.0 0.00 0.05 0.05 75 1016.7
20260901150849 21 169 0.0 8.0 0.00 0.05 0.05 77 1016.7
20260901150748 21 169 0.0 8.0 0.00 0.05 0.05 76 1016.7
20260901150709 21 165 0.0 8.0 0.00 0.05 0.05 78 1016.6
20260901150612 21 171 0.0 8.0 0.00 0.05 0.05 78 1016.6
20260901150533 21 143 1.6 8.0 0.00 0.05 0.05 77 1016.6
20260901150403 21 195 3.2 8.0 0.00 0.05 0.05 77 1016.8
20260901150257 21 194 4.8 8.0 0.00 0.05 0.05 77 1016.8
20260901150130 21 192 4.8 9.7 0.00 0.05 0.05 78 1016.9
20260901150032 21 189 4.8 9.7 0.00 0.05 0.05 77 1016.9
20260901145834 21 167 3.2 6.4 0.00 0.05 0.05 79 1016.8
20260901145755 21 134 3.2 6.4 0.00 0.05 0.05 79 1016.9
20260901145637 21 185 1.6 6.4 0.00 0.05 0.05 78 1016.9
20260901145559 21 175 0.0 6.4 0.00 0.05 0.05 78 1016.9
20260901145408 21 175 3.2 6.4 0.00 0.05 0.05 77 1016.9
20260901145323 21 175 3.2 6.4 0.00 0.05 0.05 78 1016.9
20260901145134 21 165 3.2 4.8 0.00 0.05 0.05 79 1016.8
20260901145050 21 192 1.6 4.8 0.00 0.05 0.05 79 1016.8
20260901144923 20 119 3.2 4.8 0.00 0.05 0.05 79 1016.7
20260901144823 20 131 1.6 4.8 0.00 0.05 0.05 80 1016.7
20260901144704 20 134 0.0 0.0 0.00 0.05 0.05 80 1016.7
20260901144626 20 138 0.0 0.0 0.00 0.05 0.05 79 1016.7
20260901144428 20 150 0.0 1.6 0.00 0.05 0.05 78 1016.8
20260901144330 20 143 0.0 4.8 0.00 0.05 0.05 79 1016.8
20260901144224 20 170 0.0 4.8 0.00 0.05 0.05 79 1016.8
20260901144144 20 170 0.0 4.8 0.00 0.05 0.05 80 1016.8
20260901144107 20 165 0.0 4.8 0.00 0.05 0.05 80 1016.9
20260901143948 20 140 0.0 4.8 0.00 0.05 0.05 79 1016.9
20260901143913 20 140 0.0 4.8 0.00 0.05 0.05 80 1016.8
20260901143650 20 140 1.6 4.8 0.00 0.05 0.05 80 1016.8
20260901143544 20 140 3.2 4.8 0.00 0.05 0.05 81 1016.9
20260901143413 20 143 3.2 4.8 0.00 0.05 0.05 82 1016.9
20260901143336 20 153 3.2 6.4 0.00 0.05 0.05 80 1016.9
20260901143137 20 164 3.2 6.4 0.00 0.05 0.05 80 1016.9
20260901143058 20 163 3.2 4.8 0.00 0.05 0.05 80 1016.9
20260901142923 20 153 1.6 4.8 0.00 0.05 0.05 81 1017.0
20260901142838 20 180 1.6 4.8 0.00 0.05 0.05 82 1017.0
20260901142707 20 155 1.6 4.8 0.00 0.05 0.05 83 1017.0
20260901142633 20 148 0.0 4.8 0.00 0.05 0.05 83 1017.0
20260901142503 20 148 0.0 4.8 0.00 0.05 0.05 82 1017.0
20260901142336 20 148 0.0 4.8 0.00 0.05 0.05 81 1017.1
20260901142259 20 148 1.6 4.8 0.00 0.05 0.05 81 1017.0
20260901142201 20 148 1.6 4.8 0.00 0.05 0.05 81 1017.1
20260901142041 20 148 3.2 4.8 0.00 0.05 0.05 82 1017.0
20260901141945 20 130 3.2 4.8 0.00 0.05 0.05 83 1017.0
20260901141905 20 132 3.2 4.8 0.00 0.05 0.05 81 1017.0
20260901141736 20 142 1.6 4.8 0.00 0.05 0.05 85 1017.0
20260901141630 19 184 1.6 4.8 0.00 0.05 0.05 83 1017.0
20260901141459 19 259 3.2 4.8 0.00 0.05 0.05 84 1017.0
20260901141425 19 257 3.2 4.8 0.00 0.05 0.05 84 1017.0
20260901141226 19 319 0.0 1.6 0.00 0.05 0.05 84 1017.1
20260901141146 19 319 0.0 1.6 0.00 0.05 0.05 86 1017.1
20260901141031 19 329 0.0 1.6 0.00 0.05 0.05 86 1017.1
20260901140953 18 343 0.0 1.6 0.00 0.05 0.05 87 1017.1
20260901140812 18 328 0.0 1.6 0.00 0.05 0.05 88 1017.0
20260901140726 18 292 0.0 1.6 0.00 0.05 0.05 91 1017.0
20260901140538 18 15 0.0 0.0 0.00 0.05 0.05 90 1017.0
20260901140451 18 333 0.0 0.0 0.00 0.05 0.05 90 1017.0
20260901140321 18 317 0.0 0.0 0.00 0.05 0.05 89 1017.0
20260901140246 18 329 0.0 0.0 0.00 0.05 0.05 89 1017.0
20260901140108 18 338 0.0 0.0 0.00 0.05 0.05 90 1017.0
20260901140031 18 325 0.0 0.0 0.00 0.05 0.05 90 1017.0
20260901135859 18 336 0.0 0.0 0.00 0.05 0.05 90 1016.8
20260901135821 18 330 0.0 0.0 0.00 0.05 0.05 90 1016.8
20260901135736 17 332 0.0 0.0 0.00 0.05 0.05 90 1016.8
20260901135604 17 335 0.0 0.0 0.00 0.05 0.05 89 1016.7
20260901135527 17 282 0.0 0.0 0.00 0.05 0.05 89 1016.7
20260901135328 17 282 0.0 1.6 0.00 0.05 0.05 89 1016.7
20260901135250 17 282 0.0 1.6 0.00 0.05 0.05 90 1016.6
20260901135132 17 282 0.0 1.6 0.00 0.05 0.05 90 1016.6
20260901135059 17 282 0.0 1.6 0.00 0.05 0.05 91 1016.6
20260901134840 17 282 0.0 3.2 0.00 0.05 0.05 89 1016.6
20260901134802 17 282 0.0 3.2 0.00 0.05 0.05 89 1016.6
20260901134704 17 323 0.0 3.2 0.00 0.05 0.05 90 1016.6
20260901134627 17 342 0.0 4.8 0.00 0.05 0.05 90 1016.6
20260901134428 17 347 0.0 6.4 0.00 0.05 0.05 91 1016.7
20260901134330 17 347 0.0 6.4 0.00 0.05 0.05 91 1016.8
20260901134233 17 347 0.0 6.4 0.00 0.05 0.05 90 1016.8
20260901134133 17 347 0.0 6.4 0.00 0.05 0.05 90 1016.9
20260901134059 17 347 0.0 6.4 0.00 0.05 0.05 88 1016.9
20260901133942 17 347 1.6 6.4 0.00 0.05 0.05 90 1016.9
20260901133842 17 347 1.6 6.4 0.00 0.05 0.05 91 1016.9
20260901133755 17 345 4.8 6.4 0.00 0.05 0.05 91 1017.0
20260901133716 17 344 4.8 6.4 0.00 0.05 0.05 92 1017.0
20260901133454 17 331 4.8 6.4 0.00 0.05 0.05 92 1017.1
20260901133420 17 339 3.2 6.4 0.00 0.05 0.05 92 1017.1
20260901133228 17 321 3.2 4.8 0.00 0.05 0.05 91 1017.1
20260901133143 17 321 3.2 4.8 0.00 0.05 0.05 90 1017.1
20260901133013 17 355 1.6 3.2 0.00 0.05 0.05 92 1017.2
20260901132936 17 355 1.6 3.2 0.00 0.05 0.05 92 1017.2
20260901132723 17 187 0.0 3.2 0.00 0.05 0.05 91 1017.2
20260901132645 17 187 0.0 3.2 0.00 0.05 0.05 91 1017.2
20260901132549 17 187 0.0 3.2 0.00 0.05 0.05 91 1017.2
20260901132510 17 187 0.0 4.8 0.00 0.05 0.05 91 1017.2
20260901132340 16 187 0.0 4.8 0.00 0.05 0.05 92 1017.2
20260901132233 16 187 1.6 4.8 0.00 0.05 0.05 92 1017.2
20260901132042 16 187 1.6 4.8 0.00 0.05 0.05 92 1017.1
20260901131936 16 187 1.6 4.8 0.00 0.05 0.05 92 1017.1
20260901131824 16 187 1.6 4.8 0.00 0.05 0.05 92 1017.1
20260901131745 16 187 3.2 4.8 0.00 0.05 0.05 92 1017.2
20260901131706 16 187 3.2 4.8 0.00 0.05 0.05 92 1017.2
20260901131609 16 200 3.2 4.8 0.00 0.05 0.05 92 1017.2
20260901131531 16 200 3.2 4.8 0.00 0.05 0.05 92 1017.2
20260901131334 16 194 1.6 4.8 0.00 0.05 0.05 92 1017.2
20260901131236 16 194 1.6 4.8 0.00 0.05 0.05 92 1017.2
20260901131137 16 194 1.6 4.8 0.00 0.05 0.05 92 1017.2
20260901131058 16 194 1.6 4.8 0.00 0.05 0.05 92 1017.2
20260901131019 16 194 0.0 4.8 0.00 0.05 0.05 92 1017.2
20260901130919 16 220 0.0 1.6 0.00 0.05 0.05 92 1017.3
20260901130838 16 274 0.0 1.6 0.00 0.05 0.05 92 1017.3
20260901130627 16 274 0.0 3.2 0.00 0.05 0.05 94 1017.4
20260901130543 16 274 0.0 3.2 0.00 0.05 0.05 94 1017.5
20260901130413 16 274 0.0 3.2 0.00 0.05 0.05 94 1017.5
20260901130335 16 274 0.0 3.2 0.00 0.05 0.05 94 1017.5
20260901130140 16 274 0.0 4.8 0.00 0.05 0.05 94 1017.5
20260901130100 16 274 0.0 4.8 0.00 0.05 0.05 94 1017.5
20260901130003 16 274 0.0 4.8 0.00 0.05 0.05 94 1017.5
20260901125925 16 274 0.0 4.8 0.00 0.05 0.05 94 1017.5
20260901125745 16 274 0.0 6.4 0.00 0.05 0.05 95 1017.5
20260901125645 16 179 0.0 6.4 0.00 0.05 0.05 95 1017.4
20260901125552 16 179 1.6 6.4 0.00 0.05 0.05 95 1017.4
20260901125515 16 179 1.6 6.4 0.00 0.05 0.05 95 1017.3
20260901125345 16 179 3.2 6.4 0.00 0.05 0.05 94 1017.3
20260901125301 16 179 3.2 6.4 0.00 0.05 0.05 94 1017.3
20260901125129 16 188 3.2 6.4 0.00 0.05 0.05 94 1017.2
20260901125029 16 199 3.2 6.4 0.00 0.05 0.05 94 1017.2
20260901124853 16 199 3.2 8.0 0.00 0.05 0.05 94 1017.3
20260901124815 16 211 3.2 8.0 0.00 0.05 0.05 94 1017.3
20260901124627 16 321 1.6 8.0 0.00 0.05 0.05 93 1017.3
20260901124541 16 321 1.6 8.0 0.00 0.05 0.05 93 1017.3
20260901124411 16 338 1.6 8.0 0.00 0.05 0.05 94 1017.4
20260901124331 16 338 1.6 8.0 0.00 0.05 0.05 94 1017.4
20260901124138 16 345 4.8 8.0 0.00 0.05 0.05 94 1017.3
20260901124058 16 360 4.8 8.0 0.00 0.05 0.05 94 1017.3
20260901124003 16 333 3.2 6.4 0.00 0.05 0.05 95 1017.3
20260901123924 16 340 3.2 4.8 0.00 0.05 0.05 95 1017.3
20260901123753 16 41 1.6 4.8 0.00 0.05 0.05 95 1017.2
20260901123647 16 117 0.0 0.0 0.00 0.05 0.05 95 1017.2
20260901123437 16 155 0.0 0.0 0.00 0.05 0.05 95 1017.2
20260901123351 16 155 0.0 0.0 0.00 0.05 0.05 95 1017.2
20260901123221 16 155 0.0 0.0 0.00 0.05 0.05 95 1017.3
20260901123142 16 155 0.0 0.0 0.00 0.05 0.05 95 1017.3
20260901123012 16 167 0.0 0.0 0.00 0.05 0.05 95 1017.4
20260901122932 16 167 0.0 0.0 0.00 0.05 0.05 95 1017.4
20260901122740 16 167 0.0 0.0 0.00 0.05 0.05 95 1017.5
20260901122644 16 167 0.0 0.0 0.00 0.05 0.05 95 1017.6
20260901122545 16 167 0.0 0.0 0.00 0.05 0.05 95 1017.6
20260901122326 16 167 0.0 0.0 0.00 0.05 0.05 95 1017.7
20260901122228 16 167 0.0 0.0 0.00 0.05 0.05 95 1017.8
20260901122132 16 167 0.0 0.0 0.00 0.05 0.05 95 1017.9
20260901122032 16 167 0.0 0.0 0.00 0.05 0.05 95 1017.9
20260901121947 16 167 0.0 0.0 0.00 0.05 0.05 95 1017.9
20260901121901 16 167 0.0 0.0 0.00 0.05 0.05 95 1017.9
20260901121821 16 167 0.0 0.0 0.00 0.05 0.05 95 1017.9
20260901121644 16 167 0.0 0.0 0.00 0.05 0.05 95 1017.9
20260901121543 16 167 0.0 0.0 0.00 0.05 0.05 95 1017.9
20260901121427 16 167 0.0 0.0 0.00 0.05 0.05 95 1017.9
20260901121348 16 167 0.0 0.0 0.00 0.05 0.05 95 1017.9
20260901121311 16 167 0.0 0.0 0.00 0.05 0.05 95 1017.8
20260901121213 16 167 0.0 0.0 0.00 0.05 0.05 95 1017.8
20260901121136 16 167 0.0 0.0 0.00 0.05 0.05 95 1017.8
20260901121005 16 167 0.0 0.0 0.00 0.05 0.05 95 1017.8
20260901120919 16 167 0.0 0.0 0.00 0.05 0.05 95 1017.8
20260901120732 16 167 0.0 0.0 0.00 0.05 0.05 95 1017.8
20260901120646 16 167 0.0 0.0 0.00 0.05 0.05 95 1017.9
20260901120514 16 167 0.0 0.0 0.00 0.05 0.05 95 1017.9
20260901120416 16 167 0.0 0.0 0.00 0.05 0.05 95 1017.8
20260901120319 16 167 0.0 0.0 0.00 0.05 0.05 95 1017.9
20260901120241 16 167 0.0 0.0 0.00 0.05 0.05 95 1017.8
20260901120048 16 167 0.0 0.0 0.00 0.05 0.05 95 1017.7
20260901115948 16 167 0.0 0.0 0.00 0.05 0.05 95 1017.8
20260901115830 16 167 0.0 0.0 0.00 0.05 0.05 95 1017.7
20260901115751 16 167 0.0 0.0 0.00 0.05 0.05 95 1017.7
20260901115711 16 167 0.0 0.0 0.00 0.05 0.05 95 1017.8
20260901115615 16 167 0.0 0.0 0.00 0.05 0.05 95 1017.7
20260901115540 16 167 0.0 0.0 0.00 0.05 0.05 95 1017.7
20260901115408 16 167 0.0 0.0 0.00 0.05 0.05 95 1017.7
20260901115324 16 167 0.0 0.0 0.00 0.05 0.05 95 1017.7
20260901115152 16 167 0.0 0.0 0.00 0.05 0.05 95 1017.8
20260901115114 16 167 0.0 0.0 0.00 0.05 0.05 95 1017.7
20260901114946 15 167 0.0 0.0 0.00 0.05 0.05 95 1017.7
20260901114840 15 167 0.0 0.0 0.00 0.05 0.05 95 1017.7
20260901114802 15 167 0.0 0.0 0.00 0.05 0.05 95 1017.7
20260901114705 15 167 0.0 0.0 0.00 0.05 0.05 95 1017.7
20260901114628 15 167 0.0 0.0 0.00 0.05 0.05 95 1017.7
20260901114430 15 167 0.0 0.0 0.00 0.05 0.05 95 1017.6
20260901114335 15 167 0.0 0.0 0.00 0.05 0.05 95 1017.6
20260901114238 15 167 0.0 0.0 0.00 0.05 0.05 95 1017.6
20260901114138 15 167 0.0 0.0 0.00 0.05 0.05 95 1017.6
20260901114008 15 167 0.0 0.0 0.00 0.05 0.05 95 1017.5
20260901113923 15 167 0.0 0.0 0.00 0.05 0.05 95 1017.5
20260901113733 15 167 0.0 0.0 0.00 0.05 0.05 95 1017.5
20260901113650 15 167 0.0 0.0 0.00 0.05 0.05 95 1017.5
20260901113518 15 167 0.0 0.0 0.00 0.05 0.05 95 1017.5
20260901113440 15 167 0.0 0.0 0.00 0.05 0.05 95 1017.4
20260901113249 15 167 0.0 0.0 0.00 0.05 0.05 95 1017.4
20260901113126 15 167 0.0 0.0 0.00 0.05 0.05 95 1017.4
20260901113047 15 167 0.0 0.0 0.00 0.05 0.05 95 1017.4
20260901112949 15 167 0.0 0.0 0.03 0.05 0.05 95 1017.4
20260901112911 15 167 0.0 0.0 0.03 0.05 0.05 95 1017.4
20260901112719 15 167 0.0 0.0 0.03 0.05 0.05 95 1017.4
20260901112632 15 167 0.0 0.0 0.03 0.05 0.05 95 1017.4
20260901112411 15 167 0.0 0.0 0.03 0.05 0.05 94 1017.4
20260901112334 15 167 0.0 0.0 0.03 0.05 0.05 94 1017.4
20260901112137 15 167 0.0 0.0 0.03 0.05 0.05 94 1017.4
20260901112058 15 167 0.0 0.0 0.03 0.05 0.05 94 1017.4
20260901112002 15 167 0.0 0.0 0.03 0.05 0.05 94 1017.3
20260901111923 15 167 0.0 0.0 0.03 0.05 0.05 94 1017.3
20260901111737 15 167 0.0 0.0 0.03 0.05 0.05 94 1017.2
20260901111630 15 167 0.0 0.0 0.03 0.05 0.05 94 1017.3
20260901111551 15 167 0.0 0.0 0.03 0.05 0.05 94 1017.3
20260901111435 15 167 0.0 0.0 0.03 0.05 0.05 94 1017.2
20260901111358 15 167 0.0 0.0 0.05 0.05 0.05 94 1017.2
20260901111140 15 167 0.0 0.0 0.05 0.05 0.05 94 1017.2
20260901111100 15 167 0.0 0.0 0.05 0.05 0.05 94 1017.2
20260901111003 15 167 0.0 0.0 0.05 0.05 0.05 95 1017.3
20260901110925 15 167 0.0 0.0 0.05 0.05 0.05 95 1017.3
20260901110733 15 246 0.0 0.0 0.05 0.05 0.05 95 1017.3
20260901110633 15 246 0.0 0.0 0.05 0.05 0.05 95 1017.3
20260901110536 15 246 0.0 0.0 0.05 0.05 0.05 95 1017.2
20260901110436 15 246 0.0 0.0 0.05 0.05 0.05 95 1017.2
20260901110305 15 246 0.0 0.0 0.05 0.05 0.05 95 1017.2
20260901110230 15 246 0.0 0.0 0.05 0.05 0.05 95 1017.2
20260901110100 15 246 0.0 0.0 0.05 0.05 0.05 95 1017.2
20260901110023 15 246 0.0 0.0 0.05 0.05 0.05 95 1017.2
20260901105826 15 246 0.0 0.0 0.05 0.08 0.05 95 1017.2
20260901105731 15 246 0.0 0.0 0.05 0.08 0.05 95 1017.2
20260901105634 15 246 0.0 0.0 0.05 0.08 0.05 95 1017.2
20260901105555 15 246 0.0 0.0 0.05 0.08 0.05 95 1017.2
20260901105517 15 246 0.0 0.0 0.05 0.08 0.05 95 1017.3
20260901105421 15 284 0.0 0.0 0.05 0.08 0.05 95 1017.3
20260901105342 15 284 0.0 0.0 0.05 0.08 0.05 95 1017.3
20260901105211 15 284 0.0 0.0 0.05 0.08 0.05 95 1017.3
20260901105128 15 284 0.0 0.0 0.05 0.08 0.05 95 1017.3
20260901104957 15 284 0.0 0.0 0.05 0.08 0.05 95 1017.3
20260901104919 15 284 0.0 0.0 0.05 0.08 0.05 95 1017.3
20260901104751 15 284 0.0 0.0 0.05 0.08 0.05 95 1017.3
20260901104715 15 284 0.0 0.0 0.05 0.08 0.05 95 1017.3
20260901104530 15 284 0.0 0.0 0.05 0.08 0.05 95 1017.4
20260901104446 15 284 0.0 0.0 0.05 0.08 0.05 95 1017.4
20260901104315 15 284 0.0 0.0 0.05 0.08 0.05 95 1017.4
20260901104225 15 284 0.0 0.0 0.05 0.08 0.05 95 1017.3
20260901104109 15 284 0.0 0.0 0.05 0.08 0.05 95 1017.3
20260901104030 15 284 0.0 0.0 0.05 0.08 0.05 95 1017.3
20260901103818 15 284 0.0 0.0 0.05 0.08 0.05 95 1017.3
20260901103733 15 284 0.0 0.0 0.05 0.08 0.05 95 1017.3
20260901103602 15 284 0.0 0.0 0.05 0.08 0.05 95 1017.2
20260901103525 15 284 0.0 0.0 0.05 0.08 0.05 95 1017.2
20260901103328 15 284 0.0 0.0 0.05 0.08 0.05 95 1017.2
20260901103232 15 284 0.0 0.0 0.05 0.08 0.05 95 1017.1
20260901103135 15 284 0.0 0.0 0.05 0.08 0.05 95 1017.1
20260901103055 15 284 0.0 0.0 0.05 0.08 0.05 95 1017.1
20260901103016 15 284 0.0 0.0 0.03 0.05 0.03 95 1017.1
20260901102919 15 284 0.0 0.0 0.03 0.05 0.03 95 1017.1
20260901102821 15 284 0.0 0.0 0.03 0.05 0.03 95 1017.1
20260901102638 15 284 0.0 0.0 0.03 0.05 0.03 95 1017.1
20260901102532 15 284 0.0 0.0 0.03 0.05 0.03 95 1017.1
20260901102343 15 284 0.0 0.0 0.03 0.05 0.03 95 1017.0
20260901102238 15 284 0.0 0.0 0.03 0.05 0.03 95 1017.0
20260901102125 15 284 0.0 0.0 0.03 0.05 0.03 95 1017.0
20260901102046 15 284 0.0 0.0 0.03 0.05 0.03 95 1016.9
20260901102008 15 284 0.0 0.0 0.03 0.05 0.03 95 1016.9
20260901101911 15 284 0.0 0.0 0.03 0.05 0.03 95 1016.9
20260901101833 15 284 0.0 0.0 0.03 0.05 0.03 95 1016.9
20260901101637 15 284 0.0 0.0 0.03 0.05 0.03 95 1016.9
20260901101538 15 284 0.0 0.0 0.03 0.05 0.03 95 1017.0
20260901101423 15 284 0.0 0.0 0.00 0.03 0.00 95 1016.9
20260901101344 15 284 0.0 0.0 0.00 0.03 0.00 95 1017.0
20260901101306 15 284 0.0 0.0 0.00 0.03 0.00 95 1016.9
20260901101200 15 284 0.0 0.0 0.00 0.03 0.00 95 1016.9
20260901101101 15 284 0.0 0.0 0.00 0.03 0.00 95 1016.9
20260901100929 15 284 0.0 0.0 0.00 0.03 0.00 95 1017.0
20260901100825 15 284 0.0 0.0 0.00 0.03 0.00 95 1017.0
20260901100635 15 284 0.0 0.0 0.00 0.03 0.00 95 1017.0
20260901100551 15 284 0.0 0.0 0.00 0.03 0.00 95 1017.0
20260901100420 15 284 0.0 0.0 0.00 0.03 0.00 95 1017.1
20260901100321 15 284 0.0 0.0 0.00 0.03 0.00 95 1017.1
20260901100124 15 284 0.0 0.0 0.00 0.03 0.00 95 1017.1
20260901100046 15 284 0.0 0.0 0.00 0.03 0.00 95 1017.1
20260901095949 15 284 0.0 0.0 0.00 0.03 0.00 95 1017.1
20260901095833 15 284 0.0 0.0 0.00 0.03 0.00 95 1017.1
20260901095754 15 284 0.0 0.0 0.00 0.03 0.00 95 1017.0
20260901095659 15 284 0.0 0.0 0.00 0.03 0.00 95 1017.1
20260901095621 15 284 0.0 0.0 0.00 0.03 0.00 95 1017.1
20260901095425 15 284 0.0 0.0 0.00 0.03 0.00 95 1017.1
20260901095326 15 284 0.0 0.0 0.00 0.03 0.00 95 1017.1
20260901095230 15 284 0.0 0.0 0.00 0.03 0.00 95 1017.0
20260901095152 15 255 0.0 0.0 0.00 0.03 0.00 95 1017.0
20260901095021 15 206 0.0 0.0 0.00 0.03 0.00 95 1017.0
20260901094915 15 206 0.0 0.0 0.00 0.03 0.00 95 1017.0
20260901094749 15 206 0.0 0.0 0.00 0.03 0.00 95 1016.9
20260901094709 15 206 0.0 0.0 0.00 0.03 0.00 95 1016.9
20260901094612 15 206 0.0 0.0 0.00 0.03 0.00 95 1016.9
20260901094515 15 206 0.0 0.0 0.00 0.03 0.00 95 1016.9
20260901094437 15 206 0.0 0.0 0.00 0.03 0.00 95 1016.9
20260901094307 15 206 0.0 0.0 0.00 0.03 0.00 95 1016.9
20260901094222 15 206 0.0 0.0 0.00 0.03 0.00 95 1016.9
20260901094032 15 206 0.0 0.0 0.00 0.03 0.00 95 1016.9
20260901093948 15 206 0.0 0.0 0.00 0.03 0.00 95 1016.9
20260901093819 15 206 0.0 0.0 0.00 0.03 0.00 95 1016.9
20260901093740 15 206 0.0 0.0 0.00 0.03 0.00 95 1016.9
20260901093604 15 206 0.0 0.0 0.00 0.03 0.00 95 1016.8
20260901093531 15 206 0.0 0.0 0.00 0.03 0.00 95 1016.8
20260901093342 15 206 0.0 0.0 0.00 0.03 0.00 95 1016.8
20260901093237 15 206 0.0 0.0 0.00 0.03 0.00 95 1016.8
20260901093131 15 206 0.0 0.0 0.00 0.03 0.00 95 1016.8
20260901093051 15 206 0.0 0.0 0.00 0.03 0.00 95 1016.7
20260901093013 15 206 0.0 0.0 0.00 0.03 0.00 95 1016.7
20260901092917 15 206 0.0 0.0 0.00 0.03 0.00 95 1016.7
20260901092838 15 206 0.0 0.0 0.00 0.03 0.00 95 1016.7
20260901092708 15 206 0.0 0.0 0.00 0.03 0.00 95 1016.7
20260901092624 15 206 0.0 0.0 0.00 0.03 0.00 95 1016.7
20260901092437 15 206 0.0 0.0 0.00 0.03 0.00 95 1016.7
20260901092333 15 206 0.0 0.0 0.00 0.03 0.00 95 1016.8
20260901092305 15 206 0.0 0.0 0.00 0.03 0.00 95 1016.8
20260901092207 15 206 0.0 0.0 0.00 0.03 0.00 95 1016.8
20260901092129 15 206 0.0 0.0 0.00 0.03 0.00 95 1016.8
20260901091933 15 206 0.0 0.0 0.00 0.03 0.00 95 1016.9
20260901091834 15 206 0.0 0.0 0.00 0.03 0.00 95 1016.9
20260901091738 15 206 0.0 0.0 0.00 0.03 0.00 95 1016.9
20260901091643 15 206 0.0 0.0 0.00 0.03 0.00 95 1016.8
20260901091604 15 206 0.0 0.0 0.00 0.03 0.00 95 1016.9
20260901091445 15 206 0.0 0.0 0.00 0.03 0.00 95 1016.8
20260901091408 15 206 0.0 0.0 0.00 0.03 0.00 95 1016.8
20260901091216 15 206 0.0 0.0 0.00 0.03 0.00 95 1016.8
20260901091131 15 206 0.0 0.0 0.00 0.03 0.00 95 1016.8
20260901090941 15 206 0.0 0.0 0.00 0.03 0.00 95 1016.8
20260901090835 15 206 0.0 0.0 0.00 0.03 0.00 95 1016.8
20260901090806 15 206 0.0 0.0 0.00 0.03 0.00 95 1016.8
20260901090707 15 206 0.0 0.0 0.00 0.03 0.00 95 1016.9
20260901090630 15 206 0.0 0.0 0.00 0.03 0.00 95 1016.9
20260901090503 15 206 0.0 0.0 0.00 0.03 0.00 95 1016.8
20260901090418 15 206 0.0 0.0 0.00 0.03 0.00 95 1016.9
20260901090227 15 206 0.0 0.0 0.00 0.03 0.00 95 1016.9
20260901090143 15 206 0.0 0.0 0.00 0.03 0.00 95 1016.9
20260901090011 15 206 0.0 0.0 0.00 0.03 0.00 95 1016.9
20260901085933 15 206 0.0 0.0 0.00 0.03 0.00 95 1016.9
20260901085717 15 206 0.0 0.0 0.00 0.03 0.00 95 1017.0
20260901085650 15 206 0.0 0.0 0.00 0.03 0.00 95 1016.9
20260901085552 15 206 0.0 0.0 0.00 0.03 0.00 95 1017.0
20260901085514 15 206 0.0 0.0 0.00 0.03 0.00 95 1017.0
20260901085438 15 206 0.0 0.0 0.00 0.03 0.00 95 1017.0
20260901085321 15 206 0.0 0.0 0.00 0.03 0.00 95 1017.0
20260901085242 15 206 0.0 0.0 0.00 0.03 0.00 95 1017.0
20260901085111 15 206 0.0 0.0 0.00 0.03 0.00 95 1016.9
20260901085027 15 206 0.0 0.0 0.00 0.03 0.00 95 1016.9
20260901084856 15 206 0.0 0.0 0.00 0.03 0.00 95 1016.8
20260901084818 15 206 0.0 0.0 0.00 0.03 0.00 95 1016.7
20260901084641 15 206 0.0 0.0 0.00 0.03 0.00 95 1016.7
20260901084542 15 206 0.0 0.0 0.00 0.03 0.00 95 1016.6
20260901084426 15 206 0.0 0.0 0.00 0.03 0.00 95 1016.6
20260901084347 15 206 0.0 0.0 0.00 0.03 0.00 95 1016.6
20260901084312 15 206 0.0 0.0 0.00 0.03 0.00 95 1016.6
20260901084155 15 206 0.0 0.0 0.00 0.03 0.00 95 1016.7
20260901084116 15 206 0.0 0.0 0.00 0.03 0.00 95 1016.7
20260901083946 15 206 0.0 0.0 0.00 0.03 0.00 95 1016.7
20260901083840 15 206 0.0 0.0 0.00 0.03 0.00 95 1016.8
20260901083659 15 206 0.0 0.0 0.00 0.03 0.00 95 1016.8
20260901083621 15 206 0.0 0.0 0.00 0.03 0.00 95 1016.8
20260901083515 15 206 0.0 0.0 0.00 0.03 0.00 95 1016.8
20260901083324 15 206 0.0 0.0 0.00 0.03 0.00 95 1016.8
20260901083238 15 206 0.0 0.0 0.00 0.03 0.00 95 1016.9
20260901083106 15 206 0.0 0.0 0.00 0.03 0.00 95 1016.9
20260901083028 15 206 0.0 0.0 0.00 0.03 0.00 95 1016.9
20260901082903 15 206 0.0 0.0 0.00 0.03 0.00 95 1017.0
20260901082819 15 206 0.0 0.0 0.00 0.03 0.00 95 1017.0
20260901082622 15 206 0.0 0.0 0.00 0.03 0.00 95 1017.0
20260901082536 15 206 0.0 0.0 0.00 0.03 0.00 95 1017.0
20260901082406 15 206 0.0 0.0 0.00 0.03 0.00 95 1017.0
20260901082328 15 206 0.0 0.0 0.00 0.03 0.00 95 1017.0
20260901082130 15 206 0.0 0.0 0.00 0.03 0.00 95 1017.0
20260901082052 15 206 0.0 0.0 0.00 0.03 0.00 95 1017.0
20260901081935 15 206 0.0 0.0 0.00 0.03 0.00 95 1017.0
20260901081856 15 206 0.0 0.0 0.00 0.03 0.00 95 1017.0
20260901081729 15 206 0.0 0.0 0.00 0.03 0.00 95 1017.0
20260901081624 15 206 0.0 0.0 0.00 0.03 0.00 95 1017.0
20260901081434 15 206 0.0 0.0 0.00 0.03 0.00 95 1017.0
20260901081328 15 206 0.0 0.0 0.00 0.03 0.00 95 1017.0
20260901081249 15 206 0.0 0.0 0.00 0.03 0.00 95 1016.9
20260901081133 15 206 0.0 0.0 0.00 0.03 0.00 95 1016.9
20260901081054 15 206 0.0 0.0 0.00 0.03 0.00 95 1016.9
20260901080958 15 206 0.0 0.0 0.00 0.03 0.00 95 1016.9
20260901080919 15 206 0.0 0.0 0.00 0.03 0.00 95 1016.9
20260901080802 15 206 0.0 0.0 0.00 0.03 0.00 95 1016.8
20260901080720 15 206 0.0 0.0 0.00 0.03 0.00 95 1016.8
20260901080531 15 206 0.0 0.0 0.00 0.03 0.00 95 1016.8
20260901080446 15 206 0.0 0.0 0.00 0.03 0.00 95 1016.8
20260901080252 15 206 0.0 0.0 0.00 0.03 0.00 94 1016.9
20260901080213 15 206 0.0 0.0 0.00 0.03 0.00 94 1017.0
20260901080044 15 206 0.0 0.0 0.00 0.03 0.00 95 1017.0
20260901075939 15 206 0.0 0.0 0.00 0.03 0.00 95 1017.0
20260901075727 15 206 0.0 0.0 0.00 0.03 0.00 95 1017.0
20260901075623 15 206 0.0 0.0 0.00 0.03 0.00 95 1017.0
20260901075521 15 206 0.0 0.0 0.00 0.03 0.00 95 1017.0
20260901075432 15 206 0.0 0.0 0.00 0.03 0.00 95 1017.0
20260901075348 15 206 0.0 0.0 0.00 0.03 0.00 95 1017.0
20260901075207 15 206 0.0 0.0 0.00 0.03 0.00 95 1017.0
20260901075015 15 206 0.0 0.0 0.00 0.03 0.00 95 1016.9
20260901074931 15 206 0.0 0.0 0.00 0.03 0.00 95 1016.9
20260901074811 15 206 0.0 0.0 0.00 0.03 0.00 95 1016.9
20260901074732 15 206 0.0 0.0 0.00 0.03 0.00 95 1016.9
20260901074514 15 206 0.0 0.0 0.00 0.03 0.00 95 1016.9
20260901074446 15 206 0.0 0.0 0.00 0.03 0.00 95 1016.9
20260901074352 15 206 0.0 0.0 0.00 0.03 0.00 95 1016.9
20260901074230 15 206 0.0 0.0 0.00 0.03 0.00 95 1016.9
20260901074133 15 206 0.0 0.0 0.00 0.03 0.00 95 1016.9
20260901074034 15 206 0.0 0.0 0.00 0.03 0.00 95 1016.9
20260901073913 15 206 0.0 0.0 0.00 0.03 0.00 95 1016.9
20260901073828 15 206 0.0 0.0 0.00 0.03 0.00 95 1016.9
20260901073657 15 206 0.0 0.0 0.00 0.03 0.00 95 1017.0
20260901073620 15 206 0.0 0.0 0.00 0.03 0.00 94 1017.1
20260901073423 15 206 0.0 0.0 0.00 0.03 0.00 95 1017.1
20260901073344 15 206 0.0 0.0 0.00 0.03 0.00 95 1017.1
20260901073238 15 206 0.0 0.0 0.00 0.03 0.00 95 1017.1
20260901073143 15 206 0.0 0.0 0.00 0.03 0.00 95 1017.1
20260901073025 15 206 0.0 0.0 0.00 0.03 0.00 95 1017.1
20260901072946 15 206 0.0 0.0 0.00 0.03 0.00 94 1017.1
20260901072829 15 206 0.0 0.0 0.00 0.03 0.00 94 1017.1
20260901072729 15 206 0.0 0.0 0.00 0.03 0.00 94 1017.1
20260901072642 15 206 0.0 0.0 0.00 0.03 0.00 94 1017.0
20260901072605 15 206 0.0 0.0 0.00 0.03 0.00 94 1017.0
20260901072527 15 206 0.0 0.0 0.00 0.03 0.00 94 1017.0
20260901072335 15 206 0.0 0.0 0.00 0.03 0.00 94 1017.1
20260901072230 15 206 0.0 0.0 0.00 0.03 0.00 95 1017.1
20260901072103 15 206 0.0 0.0 0.00 0.03 0.00 95 1017.1
20260901072026 15 206 0.0 0.0 0.00 0.03 0.00 95 1017.1
20260901071829 15 206 0.0 0.0 0.00 0.03 0.00 95 1017.1
20260901071750 15 206 0.0 0.0 0.00 0.03 0.00 95 1017.1
20260901071653 15 206 0.0 0.0 0.00 0.03 0.00 94 1017.1
20260901071614 15 206 0.0 0.0 0.00 0.03 0.00 94 1017.1
20260901071445 15 206 0.0 0.0 0.00 0.03 0.00 94 1017.0
20260901071340 15 206 0.0 0.0 0.00 0.03 0.00 94 1017.0
20260901071233 15 206 0.0 0.0 0.00 0.03 0.00 94 1017.0
20260901071153 15 206 0.0 0.0 0.00 0.03 0.00 94 1017.0
20260901071120 15 206 0.0 0.0 0.00 0.03 0.00 94 1017.0
20260901071000 15 206 0.0 0.0 0.00 0.03 0.00 94 1017.1
20260901070928 15 206 0.0 0.0 0.00 0.03 0.00 94 1017.1
20260901070756 15 206 0.0 0.0 0.00 0.03 0.00 94 1017.2
20260901070718 15 206 0.0 0.0 0.00 0.03 0.00 94 1017.2
20260901070540 15 206 0.0 0.0 0.00 0.03 0.00 94 1017.2
20260901070441 15 206 0.0 0.0 0.00 0.03 0.00 94 1017.2
20260901070325 15 206 0.0 0.0 0.00 0.03 0.00 94 1017.2
20260901070246 15 206 0.0 0.0 0.00 0.03 0.00 95 1017.1
20260901070151 15 206 0.0 0.0 0.00 0.03 0.00 94 1017.1
20260901070034 15 206 0.0 0.0 0.00 0.03 0.00 94 1017.1
20260901065955 15 206 0.0 0.0 0.00 0.03 0.00 94 1017.2
20260901065839 15 206 0.0 0.0 0.00 0.03 0.00 95 1017.1
20260901065737 15 206 0.0 0.0 0.00 0.03 0.00 94 1017.2
20260901065638 15 206 0.0 0.0 0.00 0.03 0.00 94 1017.2
20260901065601 15 206 0.0 0.0 0.00 0.03 0.00 95 1017.2
20260901065429 15 206 0.0 0.0 0.00 0.03 0.00 95 1017.2
20260901065323 15 206 0.0 0.0 0.00 0.03 0.00 95 1017.2
20260901065153 15 206 0.0 0.0 0.00 0.03 0.00 95 1017.1
20260901065115 15 206 0.0 0.0 0.00 0.03 0.00 95 1017.1
20260901064940 15 206 0.0 0.0 0.00 0.03 0.00 95 1017.2
20260901064844 15 206 0.0 0.0 0.00 0.03 0.00 95 1017.2
20260901064727 15 206 0.0 0.0 0.00 0.03 0.00 95 1017.2
20260901064649 15 206 0.0 0.0 0.00 0.03 0.00 95 1017.2
20260901064520 15 206 0.0 0.0 0.00 0.03 0.00 95 1017.2
20260901064412 15 206 0.0 0.0 0.00 0.03 0.00 94 1017.2
20260901064230 15 206 0.0 0.0 0.00 0.03 0.00 94 1017.3
20260901064130 15 206 0.0 0.0 0.00 0.03 0.00 94 1017.3
20260901064013 15 206 0.0 0.0 0.00 0.03 0.00 94 1017.3
20260901063936 15 206 0.0 0.0 0.00 0.03 0.00 94 1017.3
20260901063805 15 206 0.0 0.0 0.00 0.03 0.00 94 1017.3
20260901063720 15 206 0.0 0.0 0.00 0.03 0.00 94 1017.3
20260901063550 15 206 0.0 0.0 0.00 0.03 0.00 94 1017.3
20260901063515 15 206 0.0 0.0 0.00 0.03 0.00 94 1017.2
20260901063358 15 206 0.0 0.0 0.00 0.03 0.00 94 1017.2
20260901063320 15 206 0.0 0.0 0.00 0.03 0.00 94 1017.3
20260901063132 15 206 0.0 0.0 0.00 0.03 0.00 94 1017.3
20260901063024 15 206 0.0 0.0 0.00 0.03 0.00 95 1017.2
20260901062946 15 206 0.0 0.0 0.00 0.03 0.00 94 1017.2
20260901062849 15 206 0.0 0.0 0.00 0.03 0.00 94 1017.2
20260901062728 15 206 0.0 0.0 0.00 0.03 0.00 94 1017.2
20260901062630 15 206 0.0 0.0 0.00 0.03 0.00 94 1017.2
20260901062551 15 206 0.0 0.0 0.00 0.03 0.00 94 1017.2
20260901062455 15 206 0.0 0.0 0.00 0.03 0.00 94 1017.2
20260901062319 15 206 0.0 0.0 0.00 0.03 0.00 94 1017.2
20260901062149 15 206 0.0 0.0 0.00 0.03 0.00 94 1017.3
20260901062043 15 206 0.0 0.0 0.00 0.03 0.00 94 1017.3
20260901061913 15 206 0.0 0.0 0.00 0.03 0.00 94 1017.4
20260901061815 15 206 0.0 0.0 0.00 0.03 0.00 94 1017.4
20260901061625 15 206 0.0 0.0 0.00 0.03 0.00 94 1017.4
20260901061547 15 206 0.0 0.0 0.00 0.03 0.00 94 1017.5
20260901061430 15 206 0.0 0.0 0.00 0.03 0.00 94 1017.5
20260901061346 15 206 0.0 0.0 0.00 0.03 0.00 95 1017.6
20260901061227 15 206 0.0 0.0 0.00 0.03 0.00 94 1017.6
20260901061149 15 206 0.0 0.0 0.00 0.03 0.00 95 1017.6
20260901061110 15 206 0.0 0.0 0.00 0.03 0.00 95 1017.5
20260901061016 15 206 0.0 0.0 0.00 0.03 0.00 95 1017.6
20260901060937 15 206 0.0 0.0 0.00 0.03 0.00 95 1017.6
20260901060808 15 206 0.0 0.0 0.00 0.03 0.00 95 1017.5
20260901060723 15 206 0.0 0.0 0.00 0.03 0.00 95 1017.5
20260901060552 15 206 0.0 0.0 0.00 0.03 0.00 95 1017.5
20260901060515 15 206 0.0 0.0 0.00 0.03 0.00 95 1017.5
20260901060337 15 206 0.0 0.0 0.00 0.03 0.00 95 1017.5
20260901060238 15 206 0.0 0.0 0.00 0.03 0.00 95 1017.5
20260901060126 15 206 0.0 0.0 0.00 0.03 0.00 95 1017.5
20260901060048 15 206 0.0 0.0 0.00 0.03 0.00 95 1017.6
20260901055917 15 206 0.0 0.0 0.00 0.03 0.00 95 1017.6
20260901055831 15 206 0.0 0.0 0.00 0.03 0.00 95 1017.6
20260901055641 15 206 0.0 0.0 0.00 0.03 0.00 95 1017.5
20260901055535 15 206 0.0 0.0 0.00 0.03 0.00 95 1017.5
20260901055431 15 206 0.0 0.0 0.00 0.03 0.00 95 1017.5
20260901055354 15 206 0.0 0.0 0.00 0.03 0.00 95 1017.5
20260901055140 15 206 0.0 0.0 0.00 0.03 0.00 95 1017.6
20260901055040 15 206 0.0 0.0 0.00 0.03 0.00 95 1017.6
20260901054943 15 206 0.0 0.0 0.00 0.03 0.00 95 1017.7
20260901054905 15 206 0.0 0.0 0.00 0.03 0.00 95 1017.7
20260901054713 15 206 0.0 0.0 0.00 0.03 0.00 95 1017.8
20260901054627 15 206 0.0 0.0 0.00 0.03 0.00 95 1017.8
20260901054437 15 206 0.0 0.0 0.00 0.03 0.00 95 1017.8
20260901054331 15 206 0.0 0.0 0.00 0.03 0.00 95 1017.8
20260901054251 15 206 0.0 0.0 0.00 0.03 0.00 95 1017.8
20260901054204 15 206 0.0 0.0 0.00 0.03 0.00 95 1017.8
20260901054130 15 206 0.0 0.0 0.00 0.03 0.00 95 1017.8
20260901053959 15 206 0.0 0.0 0.00 0.03 0.00 95 1017.8
20260901053901 15 206 0.0 0.0 0.00 0.03 0.00 95 1017.8
20260901053742 15 206 0.0 0.0 0.00 0.03 0.00 95 1017.7
20260901053704 15 206 0.0 0.0 0.00 0.03 0.00 95 1017.7
20260901053512 15 206 0.0 0.0 0.00 0.03 0.00 95 1017.8
20260901053428 15 206 0.0 0.0 0.00 0.03 0.00 95 1017.8
20260901053256 15 206 0.0 0.0 0.00 0.03 0.00 95 1017.7
20260901053156 15 206 0.0 0.0 0.00 0.03 0.00 95 1017.7
20260901053059 15 206 0.0 0.0 0.00 0.03 0.00 95 1017.7
20260901053022 15 206 0.0 0.0 0.00 0.03 0.00 95 1017.7
20260901052944 15 206 0.0 0.0 0.00 0.03 0.00 95 1017.7
20260901052806 15 206 0.0 0.0 0.00 0.03 0.00 95 1017.7
20260901052732 15 206 0.0 0.0 0.00 0.03 0.00 95 1017.7
20260901052542 15 206 0.0 0.0 0.00 0.03 0.00 95 1017.7
20260901052436 15 206 0.0 0.0 0.00 0.03 0.00 95 1017.7
20260901052408 15 206 0.0 0.0 0.00 0.03 0.00 95 1017.7
20260901052311 15 206 0.0 0.0 0.00 0.03 0.00 95 1017.7
20260901052233 15 206 0.0 0.0 0.00 0.03 0.00 95 1017.7
20260901052037 15 206 0.0 0.0 0.00 0.03 0.00 95 1017.9
20260901051938 15 206 0.0 0.0 0.00 0.03 0.00 95 1017.9
20260901051824 15 206 0.0 0.0 0.00 0.03 0.00 95 1017.9
20260901051745 15 206 0.0 0.0 0.00 0.03 0.00 95 1017.9
20260901051625 15 206 0.0 0.0 0.00 0.03 0.00 95 1017.9
20260901051548 15 206 0.0 0.0 0.00 0.03 0.00 95 1017.9
20260901051417 15 206 0.0 0.0 0.00 0.03 0.00 95 1018.0
20260901051331 15 206 0.0 0.0 0.00 0.03 0.00 95 1017.9
20260901051139 15 206 0.0 0.0 0.00 0.03 0.00 95 1018.0
20260901051040 15 206 0.0 0.0 0.00 0.03 0.00 95 1018.0
20260901050842 15 206 0.0 0.0 0.00 0.03 0.00 95 1018.0
20260901050803 15 206 0.0 0.0 0.00 0.03 0.00 95 1018.0
20260901050705 15 206 0.0 0.0 0.00 0.03 0.00 95 1018.0
20260901050627 15 206 0.0 0.0 0.00 0.03 0.00 95 1018.0
20260901050501 15 206 0.0 0.0 0.00 0.03 0.00 95 1018.0
20260901050423 15 206 0.0 0.0 0.00 0.03 0.00 95 1018.0
20260901050226 15 206 0.0 0.0 0.00 0.03 0.00 95 1018.0
20260901050147 15 206 0.0 0.0 0.00 0.03 0.00 95 1018.0
20260901050052 15 206 0.0 0.0 0.00 0.03 0.00 95 1018.0
20260901050012 15 206 0.0 0.0 0.00 0.03 0.00 95 1018.0
20260901045751 15 206 0.0 0.0 0.00 0.03 0.00 95 1017.9
20260901045645 15 206 0.0 0.0 0.00 0.03 0.00 95 1017.9
20260901045514 15 206 0.0 0.0 0.00 0.03 0.00 95 1017.9
20260901045437 15 206 0.0 0.0 0.00 0.03 0.00 95 1017.9
20260901045223 15 206 0.0 0.0 0.00 0.03 0.00 95 1017.9
20260901045144 15 206 0.0 0.0 0.00 0.03 0.00 95 1017.9
20260901045049 15 206 0.0 0.0 0.00 0.03 0.00 95 1017.9
20260901045011 15 206 0.0 0.0 0.00 0.03 0.00 95 1017.8
20260901044840 15 206 0.0 0.0 0.00 0.03 0.00 95 1017.8
20260901044733 14 206 0.0 0.0 0.00 0.03 0.00 95 1017.8
20260901044544 14 206 0.0 0.0 0.00 0.03 0.00 95 1017.9
20260901044458 14 206 0.0 0.0 0.00 0.03 0.00 95 1017.9
20260901044307 14 206 0.0 0.0 0.00 0.03 0.00 95 1018.0
20260901044230 14 206 0.0 0.0 0.00 0.03 0.00 95 1018.0
20260901044054 14 206 0.0 0.0 0.00 0.03 0.00 95 1018.0
20260901044015 14 206 0.0 0.0 0.00 0.03 0.00 95 1018.0
20260901043828 14 206 0.0 0.0 0.00 0.03 0.00 95 1018.1
20260901043742 14 206 0.0 0.0 0.00 0.03 0.00 95 1018.0
20260901043644 14 206 0.0 0.0 0.00 0.03 0.00 95 1018.0
20260901043527 14 206 0.0 0.0 0.00 0.03 0.00 95 1018.0
20260901043448 14 206 0.0 0.0 0.00 0.03 0.00 95 1018.0
20260901043340 14 206 0.0 0.0 0.00 0.03 0.00 95 1018.0
20260901043240 14 206 0.0 0.0 0.00 0.03 0.00 95 1018.0
20260901043110 14 206 0.0 0.0 0.00 0.03 0.00 95 1018.0
20260901043025 14 206 0.0 0.0 0.00 0.03 0.00 95 1018.0
20260901042854 14 206 0.0 0.0 0.00 0.03 0.00 95 1018.0
20260901042822 14 206 0.0 0.0 0.00 0.03 0.00 95 1018.0
20260901042714 14 206 0.0 0.0 0.00 0.03 0.00 95 1018.1
20260901042544 14 206 0.0 0.0 0.00 0.03 0.00 95 1018.0
20260901042507 14 206 0.0 0.0 0.00 0.03 0.00 95 1018.1
20260901042335 14 206 0.0 0.0 0.00 0.03 0.00 95 1018.2
20260901042229 14 206 0.0 0.0 0.00 0.03 0.00 95 1018.2
20260901042058 14 206 0.0 0.0 0.00 0.03 0.00 94 1018.2
20260901042022 14 206 0.0 0.0 0.00 0.03 0.00 94 1018.2
20260901041936 14 206 0.0 0.0 0.00 0.03 0.00 95 1018.2
20260901041805 14 206 0.0 0.0 0.00 0.03 0.00 94 1018.2
20260901041726 14 206 0.0 0.0 0.00 0.03 0.00 94 1018.2
20260901041528 14 206 0.0 0.0 0.00 0.03 0.00 94 1018.1
20260901041453 14 206 0.0 0.0 0.00 0.03 0.00 94 1018.1
20260901041335 14 206 0.0 0.0 0.00 0.03 0.00 94 1018.1
20260901041257 14 206 0.0 0.0 0.00 0.03 0.00 94 1018.1
20260901041039 14 206 0.0 0.0 0.00 0.03 0.00 94 1018.1
20260901040941 14 206 0.0 0.0 0.00 0.03 0.00 94 1018.0
20260901040842 14 206 0.0 0.0 0.00 0.03 0.00 94 1018.1
20260901040805 14 206 0.0 0.0 0.00 0.03 0.00 94 1018.0
20260901040633 14 206 0.0 0.0 0.00 0.03 0.00 94 1018.0
20260901040527 14 206 0.0 0.0 0.00 0.03 0.00 94 1018.0
20260901040340 14 206 0.0 0.0 0.00 0.03 0.00 94 1017.9
20260901040234 14 206 0.0 0.0 0.00 0.03 0.00 94 1017.9
20260901040127 14 206 0.0 0.0 0.00 0.03 0.00 94 1017.9
20260901040028 14 206 0.0 0.0 0.00 0.03 0.00 94 1017.9
20260901035931 14 206 0.0 0.0 0.00 0.03 0.00 93 1017.9
20260901035853 14 206 0.0 0.0 0.00 0.03 0.03 93 1018.0
20260901035611 14 206 0.0 0.0 0.00 0.03 0.03 93 1017.9
20260901035527 14 206 0.0 0.0 0.00 0.03 0.03 93 1017.9
20260901035355 14 206 0.0 0.0 0.00 0.03 0.03 93 1017.9
20260901035317 14 206 0.0 0.0 0.00 0.03 0.03 93 1017.9
20260901035126 14 206 0.0 0.0 0.00 0.03 0.03 94 1017.8
20260901035029 14 206 0.0 0.0 0.00 0.03 0.03 94 1017.7
20260901034932 14 206 0.0 0.0 0.00 0.03 0.03 94 1017.7
20260901034852 14 206 0.0 0.0 0.00 0.03 0.03 94 1017.7
20260901034752 14 206 0.0 0.0 0.00 0.03 0.03 94 1017.7
20260901034655 14 206 0.0 0.0 0.00 0.03 0.03 94 1017.7
20260901034554 14 206 0.0 0.0 0.00 0.03 0.03 94 1017.6
20260901034514 14 206 0.0 0.0 0.00 0.03 0.03 94 1017.6
20260901034357 14 206 0.0 0.0 0.00 0.03 0.03 94 1017.6
20260901034319 14 206 0.0 0.0 0.00 0.03 0.03 94 1017.6
20260901034128 14 206 0.0 0.0 0.00 0.03 0.03 93 1017.7
20260901034030 14 206 0.0 0.0 0.00 0.03 0.03 93 1017.7
20260901033933 14 206 0.0 0.0 0.00 0.03 0.03 93 1017.7
20260901033835 14 206 0.0 0.0 0.00 0.03 0.03 93 1017.7
20260901033756 14 206 0.0 0.0 0.00 0.03 0.03 93 1017.7
20260901033658 14 206 0.0 0.0 0.00 0.03 0.03 94 1017.7
20260901033621 14 206 0.0 0.0 0.00 0.03 0.03 93 1017.7
20260901033426 14 206 0.0 0.0 0.00 0.03 0.03 93 1017.7
20260901033326 14 206 0.0 0.0 0.00 0.03 0.03 93 1017.7
20260901033233 14 206 0.0 0.0 0.00 0.03 0.03 94 1017.7
20260901033155 14 206 0.0 0.0 0.00 0.03 0.03 93 1017.7
20260901033024 14 206 0.0 0.0 0.00 0.03 0.03 93 1017.7
20260901032916 14 206 0.0 0.0 0.00 0.03 0.03 93 1017.6
20260901032817 14 206 0.0 0.0 0.00 0.03 0.03 93 1017.6
20260901032727 15 206 0.0 0.0 0.00 0.03 0.03 94 1017.7
20260901032619 15 206 0.0 0.0 0.00 0.03 0.03 94 1017.7
20260901032429 15 206 0.0 0.0 0.00 0.03 0.03 94 1017.6
20260901032345 15 206 0.0 0.0 0.00 0.03 0.03 94 1017.5
20260901032214 15 206 0.0 0.0 0.00 0.03 0.03 93 1017.5
20260901032137 15 206 0.0 0.0 0.00 0.03 0.03 93 1017.5
20260901031924 15 206 0.0 0.0 0.00 0.03 0.03 93 1017.4
20260901031846 15 206 0.0 0.0 0.00 0.03 0.03 93 1017.4
20260901031750 15 206 0.0 0.0 0.00 0.03 0.03 94 1017.4
20260901031711 15 206 0.0 0.0 0.00 0.03 0.03 94 1017.4
20260901031611 15 206 0.0 0.0 0.00 0.03 0.03 94 1017.4
20260901031515 15 206 0.0 0.0 0.00 0.03 0.03 94 1017.4
20260901031437 15 206 0.0 0.0 0.00 0.03 0.03 94 1017.4
20260901031308 15 206 0.0 0.0 0.00 0.03 0.03 94 1017.4
20260901031223 15 206 0.0 0.0 0.00 0.03 0.03 94 1017.4
20260901031054 15 206 0.0 0.0 0.00 0.03 0.03 94 1017.5
20260901031015 15 206 0.0 0.0 0.00 0.03 0.03 94 1017.4
20260901030846 15 206 0.0 0.0 0.00 0.03 0.03 94 1017.5
20260901030744 15 206 0.0 0.0 0.00 0.03 0.03 94 1017.5
20260901030614 15 206 0.0 0.0 0.00 0.03 0.03 94 1017.5
20260901030536 15 206 0.0 0.0 0.00 0.03 0.03 94 1017.5
20260901030338 15 206 0.0 0.0 0.00 0.03 0.03 94 1017.6
20260901030300 15 206 0.0 0.0 0.00 0.03 0.03 94 1017.6
20260901030124 15 206 0.0 0.0 0.00 0.03 0.03 94 1017.6
20260901030040 15 206 0.0 0.0 0.00 0.03 0.03 94 1017.6
20260901025910 15 206 0.0 0.0 0.00 0.03 0.03 93 1017.6
20260901025832 15 206 0.0 0.0 0.00 0.03 0.03 93 1017.6
20260901025655 15 206 0.0 0.0 0.00 0.03 0.03 93 1017.7
20260901025621 15 206 0.0 0.0 0.00 0.03 0.03 93 1017.8
20260901025430 15 206 0.0 0.0 0.00 0.03 0.03 93 1017.8
20260901025317 15 206 0.0 0.0 0.00 0.03 0.03 93 1017.8
20260901025220 15 206 0.0 0.0 0.00 0.03 0.03 93 1017.8
20260901025121 15 206 0.0 0.0 0.00 0.03 0.03 93 1017.7
20260901024951 15 206 0.0 0.0 0.00 0.03 0.03 93 1017.7
20260901024855 15 206 0.0 0.0 0.00 0.03 0.03 93 1017.7
20260901024816 15 206 0.0 0.0 0.00 0.03 0.03 93 1017.7
20260901024647 15 206 0.0 0.0 0.00 0.03 0.03 93 1017.7
20260901024602 15 206 0.0 0.0 0.00 0.03 0.03 93 1017.7
20260901024437 15 206 0.0 0.0 0.00 0.03 0.03 93 1017.7
20260901024337 15 206 0.0 0.0 0.00 0.03 0.03 93 1017.7
20260901024148 15 206 0.0 0.0 0.00 0.03 0.03 93 1017.7
20260901024043 15 206 0.0 0.0 0.00 0.03 0.03 93 1017.7
20260901023912 15 206 0.0 0.0 0.00 0.03 0.03 93 1017.7
20260901023835 15 206 0.0 0.0 0.00 0.03 0.03 93 1017.7
20260901023638 15 206 0.0 0.0 0.00 0.03 0.03 93 1017.8
20260901023559 15 206 0.0 0.0 0.00 0.03 0.03 93 1017.9
20260901023423 15 206 0.0 0.0 0.00 0.03 0.03 93 1017.9
20260901023338 15 206 0.0 0.0 0.00 0.03 0.03 93 1017.9
20260901023211 15 206 0.0 0.0 0.00 0.03 0.03 93 1017.8
20260901023134 15 206 0.0 0.0 0.00 0.03 0.03 93 1017.8
20260901022938 15 206 0.0 0.0 0.00 0.03 0.03 93 1017.8
20260901022858 15 206 0.0 0.0 0.00 0.03 0.03 93 1017.8
20260901022740 15 206 0.0 0.0 0.00 0.03 0.03 93 1017.9
20260901022701 15 206 0.0 0.0 0.00 0.03 0.03 93 1017.9
20260901022525 15 206 0.0 0.0 0.00 0.03 0.03 93 1017.9
20260901022446 15 206 0.0 0.0 0.00 0.03 0.03 93 1017.8
20260901022306 15 206 0.0 0.0 0.00 0.03 0.03 93 1017.8
20260901022124 15 206 0.0 0.0 0.00 0.03 0.03 93 1017.8
20260901022027 15 206 0.0 0.0 0.00 0.03 0.03 93 1017.8
20260901021948 15 206 0.0 0.0 0.00 0.03 0.03 93 1017.8
20260901021847 15 206 0.0 0.0 0.00 0.03 0.03 93 1017.7
20260901021730 15 206 0.0 0.0 0.00 0.03 0.03 93 1017.7
20260901021626 15 206 0.0 0.0 0.00 0.03 0.03 93 1017.7
20260901021528 15 206 0.0 0.0 0.00 0.03 0.03 92 1017.7
20260901021444 15 206 0.0 0.0 0.00 0.03 0.03 92 1017.7
20260901021312 15 206 0.0 0.0 0.00 0.03 0.03 92 1017.6
20260901021217 15 206 0.0 0.0 0.00 0.03 0.03 92 1017.6
20260901021048 15 206 0.0 0.0 0.00 0.03 0.03 92 1017.6
20260901020941 15 206 0.0 0.0 0.00 0.03 0.03 92 1017.6
20260901020824 15 206 0.0 0.0 0.00 0.03 0.03 92 1017.7
20260901020744 15 206 0.0 0.0 0.00 0.03 0.03 92 1017.7
20260901020615 15 206 0.0 0.0 0.00 0.03 0.03 92 1017.6
20260901020530 15 206 0.0 0.0 0.00 0.03 0.03 92 1017.6
20260901020340 15 206 0.0 0.0 0.00 0.03 0.03 92 1017.6
20260901020235 15 206 0.0 0.0 0.00 0.03 0.03 92 1017.6
20260901020121 15 206 0.0 0.0 0.00 0.03 0.03 92 1017.6
20260901020025 15 206 0.0 0.0 0.00 0.03 0.03 92 1017.6
20260901015940 15 206 0.0 0.0 0.00 0.03 0.03 92 1017.6
20260901015809 15 206 0.0 0.0 0.00 0.03 0.03 92 1017.7
20260901015731 15 206 0.0 0.0 0.00 0.03 0.03 92 1017.7
20260901015535 15 206 0.0 0.0 0.00 0.03 0.03 92 1017.7
20260901015456 15 206 0.0 0.0 0.00 0.03 0.03 92 1017.7
20260901015340 15 206 0.0 0.0 0.00 0.03 0.03 92 1017.7
20260901015305 15 206 0.0 0.0 0.00 0.03 0.03 92 1017.7
20260901015114 15 206 0.0 0.0 0.00 0.03 0.03 92 1017.7
20260901015030 15 206 0.0 0.0 0.00 0.03 0.03 92 1017.7
20260901014841 15 206 0.0 0.0 0.00 0.03 0.03 92 1017.8
20260901014736 15 206 0.0 0.0 0.00 0.03 0.03 92 1017.7
20260901014658 15 206 0.0 0.0 0.00 0.03 0.03 92 1017.7
20260901014524 15 206 0.0 0.0 0.00 0.03 0.03 92 1017.7
20260901014428 15 206 0.0 0.0 0.00 0.03 0.03 92 1017.7
20260901014328 15 206 0.0 0.0 0.00 0.03 0.03 92 1017.7
20260901014248 15 206 0.0 0.0 0.00 0.03 0.03 92 1017.7
20260901014209 15 206 0.0 0.0 0.00 0.03 0.03 92 1017.6
20260901014131 15 206 0.0 0.0 0.00 0.03 0.03 92 1017.6
20260901013934 15 206 0.0 0.0 0.00 0.03 0.03 92 1017.6
20260901013857 15 206 0.0 0.0 0.00 0.03 0.03 92 1017.6
20260901013740 16 206 0.0 0.0 0.00 0.03 0.03 92 1017.6
20260901013659 16 206 0.0 0.0 0.00 0.03 0.03 92 1017.6
20260901013540 16 206 0.0 0.0 0.00 0.03 0.03 92 1017.7
20260901013501 16 206 0.0 0.0 0.00 0.03 0.03 91 1017.7
20260901013323 16 206 0.0 0.0 0.00 0.03 0.03 91 1017.7
20260901013228 16 206 0.0 0.0 0.00 0.03 0.03 91 1017.7
20260901013149 16 206 0.0 0.0 0.00 0.03 0.03 91 1017.7
20260901013052 16 206 0.0 0.0 0.00 0.03 0.03 91 1017.7
20260901013013 16 206 0.0 0.0 0.00 0.03 0.03 91 1017.7
20260901012935 16 206 0.0 0.0 0.00 0.03 0.03 91 1017.7
20260901012816 16 206 0.0 0.0 0.00 0.03 0.03 91 1017.7
20260901012738 16 206 0.0 0.0 0.00 0.03 0.03 91 1017.7
20260901012609 16 206 0.0 0.0 0.00 0.03 0.03 91 1017.6
20260901012523 16 206 0.0 0.0 0.00 0.03 0.03 91 1017.6
20260901012352 16 206 0.0 0.0 0.00 0.03 0.03 91 1017.7
20260901012252 16 206 0.0 0.0 0.00 0.03 0.03 91 1017.7
20260901012140 16 206 0.0 0.0 0.00 0.03 0.03 91 1017.7
20260901012101 16 206 0.0 0.0 0.00 0.03 0.03 91 1017.7
20260901011924 16 206 0.0 0.0 0.00 0.03 0.03 91 1017.7
20260901011845 16 206 0.0 0.0 0.00 0.03 0.03 91 1017.6
20260901011716 16 206 0.0 0.0 0.00 0.03 0.03 91 1017.6
20260901011631 16 206 0.0 0.0 0.00 0.03 0.03 91 1017.6
20260901011501 16 206 0.0 0.0 0.00 0.03 0.03 91 1017.6
20260901011423 16 206 0.0 0.0 0.00 0.03 0.03 91 1017.6
20260901011226 16 206 0.0 0.0 0.00 0.03 0.03 91 1017.6
20260901011148 16 206 0.0 0.0 0.00 0.03 0.03 91 1017.7
20260901011037 16 206 0.0 0.0 0.00 0.03 0.03 91 1017.6
20260901010958 16 206 0.0 0.0 0.00 0.03 0.03 91 1017.6
20260901010919 16 206 0.0 0.0 0.00 0.03 0.03 91 1017.7
20260901010801 16 206 0.0 0.0 0.00 0.03 0.03 91 1017.6
20260901010723 16 206 0.0 0.0 0.00 0.03 0.03 91 1017.6
20260901010527 16 206 0.0 1.6 0.00 0.03 0.03 91 1017.7
20260901010428 16 206 0.0 1.6 0.00 0.03 0.03 91 1017.7
20260901010332 16 206 0.0 1.6 0.00 0.03 0.03 91 1017.7
20260901010232 16 206 0.0 1.6 0.00 0.03 0.03 91 1017.7
20260901010017 16 206 0.0 1.6 0.00 0.03 0.03 90 1017.6
20260901005850 16 206 0.0 1.6 0.00 0.03 0.03 90 1017.6
20260901005812 16 206 0.0 1.6 0.00 0.03 0.03 90 1017.5
20260901005615 16 206 0.0 0.0 0.00 0.03 0.03 90 1017.5
20260901005536 16 206 0.0 0.0 0.00 0.03 0.03 90 1017.5
20260901005407 16 206 0.0 0.0 0.00 0.03 0.03 91 1017.5
20260901005307 16 206 0.0 0.0 0.00 0.03 0.03 91 1017.6
20260901005148 16 206 0.0 0.0 0.00 0.03 0.03 90 1017.5
20260901005028 16 206 0.0 0.0 0.00 0.03 0.03 90 1017.6
20260901004931 16 206 0.0 0.0 0.00 0.03 0.03 90 1017.6
20260901004852 16 206 0.0 0.0 0.00 0.03 0.03 90 1017.6
20260901004813 16 206 0.0 0.0 0.00 0.03 0.03 90 1017.6
20260901004715 16 206 0.0 1.6 0.00 0.03 0.03 90 1017.6
20260901004641 16 206 0.0 1.6 0.00 0.03 0.03 90 1017.6
20260901004511 16 206 0.0 1.6 0.00 0.03 0.03 90 1017.5
20260901004427 16 206 0.0 1.6 0.00 0.03 0.03 90 1017.5
20260901004256 16 206 0.0 1.6 0.00 0.03 0.03 90 1017.6
20260901004218 16 206 0.0 1.6 0.00 0.03 0.03 90 1017.6
20260901004049 17 206 0.0 1.6 0.00 0.03 0.03 90 1017.6
20260901003944 17 206 0.0 1.6 0.00 0.03 0.03 89 1017.6
20260901003826 17 206 0.0 1.6 0.00 0.03 0.03 89 1017.6
20260901003748 17 206 0.0 1.6 0.00 0.03 0.03 89 1017.6
20260901003710 17 206 0.0 1.6 0.00 0.03 0.03 89 1017.6
20260901003613 17 206 1.6 1.6 0.00 0.03 0.03 89 1017.6
20260901003538 17 206 1.6 1.6 0.00 0.03 0.03 89 1017.6
20260901003408 17 206 0.0 1.6 0.00 0.03 0.03 88 1017.6
20260901003240 17 206 0.0 1.6 0.00 0.03 0.03 89 1017.6
20260901003211 17 206 0.0 1.6 0.00 0.03 0.03 89 1017.6
20260901003116 17 206 0.0 1.6 0.00 0.03 0.03 88 1017.6
20260901003016 17 206 0.0 1.6 0.00 0.03 0.03 88 1017.6
20260901002847 17 206 0.0 1.6 0.00 0.03 0.03 88 1017.6
20260901002741 17 206 0.0 1.6 0.00 0.03 0.03 88 1017.6
20260901002625 17 206 1.6 1.6 0.00 0.03 0.03 88 1017.6
20260901002530 17 206 1.6 1.6 0.00 0.03 0.03 88 1017.6
20260901002451 17 206 1.6 1.6 0.00 0.03 0.03 88 1017.5
20260901002354 17 206 0.0 1.6 0.00 0.03 0.03 88 1017.5
20260901002316 17 206 0.0 0.0 0.00 0.03 0.03 88 1017.5
20260901002145 17 206 0.0 0.0 0.00 0.03 0.03 88 1017.5
20260901002040 17 206 0.0 0.0 0.00 0.03 0.03 88 1017.5
20260901002011 17 206 0.0 0.0 0.00 0.03 0.03 88 1017.5
20260901001915 17 206 0.0 0.0 0.00 0.03 0.03 88 1017.5
20260901001836 17 206 0.0 0.0 0.00 0.03 0.03 88 1017.5
20260901001706 17 206 0.0 0.0 0.00 0.03 0.03 88 1017.5
20260901001622 17 206 0.0 0.0 0.00 0.03 0.03 88 1017.5
20260901001452 17 206 0.0 0.0 0.00 0.03 0.03 87 1017.5
20260901001418 17 206 0.0 0.0 0.00 0.03 0.03 87 1017.5
20260901001248 17 206 0.0 0.0 0.00 0.03 0.03 87 1017.5
20260901001121 17 206 0.0 0.0 0.00 0.03 0.03 87 1017.6
20260901001044 17 206 0.0 0.0 0.00 0.03 0.03 87 1017.6
20260901000927 17 206 0.0 0.0 0.00 0.03 0.03 87 1017.6
20260901000901 17 206 0.0 0.0 0.00 0.03 0.03 87 1017.6
20260901000701 17 206 0.0 0.0 0.00 0.03 0.03 86 1017.6
20260901000541 17 206 0.0 0.0 0.00 0.03 0.03 87 1017.6
20260901000506 17 206 0.0 0.0 0.00 0.03 0.03 86 1017.6
20260901000428 17 206 0.0 0.0 0.00 0.03 0.03 86 1017.6
20260901000235 17 206 0.0 0.0 0.00 0.03 0.03 86 1017.6
20260901000138 17 206 0.0 0.0 0.00 0.03 0.03 86 1017.6
20260901000044 17 206 0.0 0.0 0.00 0.03 0.03 86 1017.6
20260831235942 17 206 0.0 0.0 0.00 0.03 0.03 86 1017.6
20260831235813 17 206 0.0 0.0 0.00 0.03 0.03 86 1017.5
20260831235727 17 206 0.0 0.0 0.00 0.03 0.03 86 1017.5
20260831235556 18 206 0.0 0.0 0.00 0.03 0.03 85 1017.5
20260831235519 18 206 0.0 0.0 0.00 0.03 0.03 85 1017.6
20260831235324 18 206 0.0 0.0 0.00 0.03 0.03 85 1017.5
20260831235228 18 206 0.0 0.0 0.00 0.03 0.03 85 1017.5
20260831235132 18 206 0.0 0.0 0.00 0.03 0.03 85 1017.5
20260831235053 18 206 0.0 0.0 0.00 0.03 0.03 85 1017.5
20260831235014 18 206 0.0 1.6 0.00 0.03 0.03 85 1017.6
20260831234919 18 206 0.0 3.2 0.00 0.03 0.03 84 1017.5
20260831234840 18 206 0.0 3.2 0.00 0.03 0.03 84 1017.5
20260831234649 18 206 0.0 3.2 0.00 0.03 0.03 84 1017.5
20260831234524 18 206 0.0 3.2 0.00 0.03 0.03 84 1017.5
20260831234427 18 206 0.0 3.2 0.00 0.03 0.03 84 1017.5
20260831234327 18 206 0.0 3.2 0.00 0.03 0.03 84 1017.5
20260831234136 18 206 1.6 3.2 0.00 0.03 0.03 83 1017.4
20260831234042 18 206 1.6 3.2 0.00 0.03 0.03 84 1017.4
20260831233825 18 206 0.0 1.6 0.00 0.03 0.03 84 1017.4
20260831233746 18 206 0.0 1.6 0.00 0.03 0.03 85 1017.4
20260831233629 18 206 0.0 0.0 0.00 0.03 0.03 84 1017.5
20260831233551 18 206 0.0 0.0 0.00 0.03 0.03 84 1017.4
20260831233412 19 206 0.0 0.0 0.00 0.03 0.03 84 1017.5
20260831233345 19 206 0.0 0.0 0.00 0.03 0.03 84 1017.4
20260831233129 19 206 0.0 0.0 0.00 0.03 0.03 84 1017.4
20260831233051 19 206 0.0 0.0 0.00 0.03 0.03 84 1017.4
20260831232957 19 206 0.0 0.0 0.00 0.03 0.03 84 1017.4
20260831232920 19 206 0.0 0.0 0.00 0.03 0.03 84 1017.4
20260831232730 19 206 0.0 0.0 0.00 0.03 0.03 83 1017.4
20260831232624 19 206 0.0 0.0 0.00 0.03 0.03 83 1017.3
20260831232546 19 206 0.0 0.0 0.00 0.03 0.03 83 1017.3
20260831232450 20 206 0.0 0.0 0.00 0.03 0.03 83 1017.3
20260831232412 20 206 0.0 0.0 0.00 0.03 0.03 83 1017.3
20260831232226 20 206 0.0 0.0 0.00 0.03 0.03 82 1017.4
20260831232129 20 206 0.0 0.0 0.00 0.03 0.03 82 1017.4
20260831232036 20 206 0.0 0.0 0.00 0.03 0.03 82 1017.3
20260831231936 20 206 0.0 0.0 0.00 0.03 0.03 82 1017.3
20260831231806 20 206 0.0 0.0 0.00 0.03 0.03 82 1017.3
20260831231720 20 206 0.0 0.0 0.00 0.03 0.03 82 1017.4
20260831231551 20 206 0.0 0.0 0.00 0.03 0.03 82 1017.4
20260831231512 20 206 0.0 0.0 0.00 0.03 0.03 82 1017.4
20260831231343 20 206 0.0 0.0 0.00 0.03 0.03 81 1017.4
20260831231234 20 206 0.0 0.0 0.00 0.03 0.03 81 1017.4
20260831231103 20 206 0.0 0.0 0.00 0.03 0.03 81 1017.4
20260831231026 20 206 0.0 0.0 0.00 0.03 0.03 81 1017.4
20260831230828 20 206 0.0 0.0 0.00 0.03 0.03 81 1017.4
20260831230748 21 206 0.0 0.0 0.00 0.03 0.03 81 1017.4
20260831230655 21 206 0.0 0.0 0.00 0.03 0.03 80 1017.4
20260831230555 21 206 0.0 0.0 0.00 0.03 0.03 80 1017.4
20260831230404 21 206 0.0 0.0 0.00 0.03 0.03 80 1017.5
20260831230319 21 206 0.0 0.0 0.00 0.03 0.03 79 1017.4
20260831230129 21 206 0.0 0.0 0.00 0.03 0.03 79 1017.4
20260831230046 21 206 0.0 0.0 0.00 0.03 0.03 79 1017.5
20260831225915 21 206 0.0 0.0 0.00 0.05 0.03 79 1017.5
20260831225837 21 206 0.0 0.0 0.00 0.05 0.03 79 1017.5
20260831225641 21 206 0.0 0.0 0.00 0.05 0.03 78 1017.5
20260831225543 21 206 0.0 0.0 0.00 0.05 0.03 79 1017.6
20260831225459 21 206 0.0 0.0 0.00 0.05 0.03 80 1017.5
20260831225229 21 206 0.0 0.0 0.00 0.05 0.03 78 1017.5
20260831225123 21 206 0.0 0.0 0.00 0.05 0.03 78 1017.5
20260831224932 21 206 0.0 0.0 0.00 0.05 0.03 77 1017.5
20260831224849 21 206 0.0 0.0 0.00 0.05 0.03 77 1017.6
20260831224717 21 206 0.0 0.0 0.00 0.05 0.03 77 1017.5
20260831224640 21 206 0.0 0.0 0.00 0.05 0.03 77 1017.5
20260831224503 21 206 0.0 0.0 0.00 0.05 0.03 76 1017.5
20260831224425 21 206 0.0 0.0 0.00 0.05 0.03 76 1017.5
20260831224235 21 206 0.0 0.0 0.00 0.05 0.03 77 1017.5
20260831224131 22 206 0.0 0.0 0.00 0.05 0.03 77 1017.5
20260831224053 22 206 0.0 0.0 0.00 0.05 0.03 77 1017.5
20260831223956 22 206 0.0 0.0 0.00 0.05 0.03 76 1017.5
20260831223857 22 206 0.0 0.0 0.00 0.05 0.03 75 1017.5
20260831223818 22 206 0.0 0.0 0.00 0.05 0.03 75 1017.5
20260831223710 22 206 0.0 0.0 0.00 0.05 0.03 75 1017.5
20260831223643 22 206 0.0 0.0 0.00 0.05 0.03 74 1017.5
20260831223425 22 206 0.0 0.0 0.00 0.05 0.03 74 1017.5
20260831223326 22 206 0.0 0.0 0.00 0.05 0.03 75 1017.5
20260831223230 22 206 0.0 0.0 0.00 0.05 0.03 75 1017.5
20260831223136 22 206 0.0 0.0 0.00 0.05 0.03 74 1017.5
20260831223057 22 206 0.0 0.0 0.00 0.05 0.03 73 1017.6
20260831222959 22 206 0.0 0.0 0.00 0.05 0.03 74 1017.5
20260831222922 22 206 0.0 0.0 0.00 0.05 0.03 74 1017.6
20260831222725 22 206 0.0 0.0 0.00 0.05 0.03 74 1017.6
20260831222627 22 206 0.0 0.0 0.00 0.05 0.03 73 1017.6
20260831222532 22 206 0.0 0.0 0.00 0.05 0.03 73 1017.6
20260831222454 22 206 0.0 0.0 0.00 0.05 0.03 71 1017.6
20260831222306 22 206 0.0 0.0 0.00 0.05 0.03 72 1017.6
20260831222218 22 206 0.0 0.0 0.00 0.05 0.03 72 1017.6
20260831222031 22 206 0.0 0.0 0.00 0.05 0.03 71 1017.6
20260831221952 22 206 0.0 0.0 0.00 0.05 0.03 70 1017.6
20260831221835 22 206 0.0 0.0 0.00 0.05 0.03 70 1017.6
20260831221756 22 206 0.0 0.0 0.00 0.05 0.03 70 1017.6
20260831221538 22 206 0.0 0.0 0.00 0.05 0.03 71 1017.6
20260831221440 22 206 0.0 0.0 0.00 0.05 0.03 70 1017.7
20260831221322 22 206 0.0 0.0 0.00 0.05 0.03 68 1017.7
20260831221244 22 206 0.0 0.0 0.00 0.05 0.03 68 1017.7
20260831221142 23 206 0.0 0.0 0.00 0.05 0.03 69 1017.7
20260831221026 23 206 0.0 0.0 0.00 0.05 0.03 68 1017.7
20260831220928 23 206 0.0 0.0 0.00 0.05 0.03 69 1017.6
20260831220823 23 206 0.0 0.0 0.00 0.05 0.03 68 1017.7
20260831220727 23 206 0.0 0.0 0.00 0.05 0.03 67 1017.7
20260831220629 23 206 0.0 0.0 0.00 0.05 0.03 67 1017.7
20260831220532 23 206 0.0 0.0 0.00 0.05 0.03 67 1017.7
20260831220454 23 206 0.0 0.0 0.00 0.05 0.03 67 1017.8